GFSNE_700_rhum_015.txt.gz
RH
68 64 32 21 26 23 20 15 12 11 14 14 14 10 7 7 6 6 5 4 3 4 4 6 8 8 8 13 19 21 21 20 19 16 16 18 73 62
67 51 21 25 23 20 15 12 11 12 14 13 9 8 8 8 7 6 4 4 7 10 14 12 14 26 33 35 35 35 37 38 39 40 40 41 43 50
58 23 24 24 20 14 12 11 12 12 9 6 7 7 7 6 4 4 8 11 12 13 16 31 42 41 42 48 46 46 44 46 48 49 49 49 51 57
25 24 24 19 14 12 12 12 11 8 7 5 3 3 4 4 6 11 14 15 16 29 43 46 52 50 53 55 52 50 48 50 51 55 54 54 54 56
24 24 18 14 12 12 12 9 8 6 3 2 3 3 4 9 12 15 18 21 43 48 52 58 55 50 55 47 36 34 42 53 54 56 57 58 58 56
23 17 14 12 13 11 8 7 3 2 3 3 4 5 11 14 20 26 31 52 50 56 60 61 53 58 40 37 54 60 60 60 61 66 70 71 70 70
16 14 13 13 10 8 4 3 4 4 4 5 8 12 14 17 35 53 58 57 55 62 65 51 59 50 50 67 68 63 61 68 71 79 82 82 77 76
13 14 13 9 7 3 4 5 5 5 6 13 15 16 19 49 62 64 65 67 58 60 70 50 71 51 65 67 72 70 70 75 78 81 90 96 81 68
14 12 9 5 3 5 5 5 5 8 15 19 18 36 62 69 74 72 70 73 66 65 82 63 66 52 68 71 84 81 80 87 88 91 91 94 98 93
11 9 5 4 5 5 5 5 6 14 18 26 56 68 75 78 82 83 80 75 61 67 88 81 66 61 62 74 94 91 96 100 91 95 99 100 98 92
10 5 4 6 6 5 5 8 14 17 37 66 70 77 81 86 92 90 82 79 64 57 81 90 67 61 58 70 95 100 93 86 86 89 94 92 96 94
6 4 6 6 6 6 10 16 18 47 63 67 72 78 82 84 87 91 92 89 83 61 84 80 68 81 48 57 73 86 82 81 78 78 84 96 98 96
4 6 8 7 6 10 18 27 58 63 67 72 74 76 78 83 86 89 100 100 96 81 96 94 72 79 84 56 58 69 75 71 69 68 82 100 97 97
5 8 8 8 9 18 29 62 68 71 71 72 76 82 83 82 83 90 95 99 100 99 87 100 86 87 80 68 63 59 69 73 70 71 86 99 97 98
8 10 10 10 16 26 63 68 74 76 78 79 80 81 83 84 86 91 86 89 90 98 98 100 93 88 88 84 78 67 76 62 67 76 90 91 96 97
11 11 11 13 22 60 70 76 80 85 85 83 85 86 85 89 92 96 92 93 86 84 96 100 95 91 88 91 92 80 86 80 69 82 94 92 96 98
13 13 12 19 51 70 75 80 85 86 85 86 87 89 91 91 92 97 97 91 91 89 81 88 88 91 94 94 92 89 88 69 69 93 93 90 94 97
15 14 17 35 71 77 79 84 89 87 88 89 92 94 91 91 90 89 95 95 92 92 90 91 82 74 73 75 97 98 84 71 78 86 95 96 90 98
20 18 26 67 76 81 83 84 85 90 91 94 95 97 93 91 95 93 95 97 94 96 92 96 90 88 79 66 67 97 91 81 83 80 93 97 94 95
21 23 60 78 81 84 85 86 89 92 94 97 98 97 98 97 94 97 98 98 96 92 88 99 98 96 95 90 74 70 94 88 90 86 82 93 94 98
22 51 78 82 84 86 88 91 93 94 98 100 100 97 97 99 97 99 99 100 100 100 93 94 100 100 100 95 84 82 95 99 100 97 91 86 89 88
45 79 84 85 87 88 90 92 93 98 100 100 98 96 97 98 97 97 99 98 98 99 94 97 98 95 95 100 96 95 92 93 97 96 96 96 86 79
78 86 87 88 89 90 90 92 97 100 100 98 97 97 98 96 98 99 97 97 96 95 97 95 96 97 99 100 100 99 95 94 93 95 96 96 96 99

GFSNE_700_rhum_021.txt.gz
RH
66 71 73 73 72 74 66 54 27 26 20 16 18 19 17 13 10 8 7 6 4 3 3 3 3 4 5 6 7 7 8 10 25 34 32 31 33 38
69 72 75 76 78 71 55 28 25 17 17 18 19 15 11 9 7 6 5 3 3 3 3 4 6 7 8 8 13 22 32 40 40 40 43 47 52 78
74 75 77 79 78 52 28 24 16 17 19 17 12 9 8 6 5 4 3 3 3 4 7 7 11 25 27 41 42 43 46 46 45 44 42 43 44 45
81 78 83 83 48 28 22 16 18 16 14 12 9 7 6 5 4 3 4 5 7 8 18 37 43 40 49 49 49 48 47 44 42 40 40 38 34 32
82 86 89 49 27 20 16 17 15 12 9 8 6 6 5 4 4 4 6 8 20 43 43 48 51 52 57 55 52 50 45 44 42 43 37 39 51 52
92 93 41 27 18 17 17 14 11 9 7 6 5 5 4 4 6 8 14 40 42 48 48 53 53 58 60 56 55 54 57 55 51 46 49 55 56 57
96 30 24 17 17 16 13 10 8 7 6 5 5 5 5 7 16 39 44 46 43 50 48 49 55 53 53 55 58 63 68 67 60 58 58 58 64 65
27 19 18 17 15 12 10 8 7 6 5 6 6 6 10 33 50 50 48 45 36 50 47 46 59 53 52 53 59 69 70 70 63 59 62 74 72 72
18 18 17 14 12 9 8 6 5 5 7 8 7 16 44 56 54 52 54 54 54 57 56 46 57 53 55 52 62 70 68 73 67 65 72 80 78 76
19 16 14 10 8 6 4 4 5 7 9 10 22 51 59 61 62 62 62 59 57 62 68 56 59 51 50 54 62 73 80 83 77 70 74 81 79 78
15 11 9 7 5 4 5 6 8 10 11 29 60 64 68 70 73 67 69 62 58 61 74 74 61 56 52 50 60 68 73 74 79 85 81 77 78 79
10 8 6 4 4 6 8 9 10 10 25 57 63 68 71 73 77 81 80 77 76 64 87 73 69 73 48 49 50 61 68 74 80 78 78 77 75 74
6 4 4 6 7 8 10 11 11 24 55 57 62 68 67 73 80 90 93 92 85 78 94 91 79 87 85 64 51 61 64 68 70 68 75 78 78 78
4 5 6 8 8 10 12 12 27 58 59 63 68 70 69 77 82 86 88 90 93 89 91 100 94 94 88 75 64 62 67 70 70 66 71 74 76 75
5 7 8 9 12 14 13 29 62 63 65 68 71 73 77 80 83 82 88 91 90 98 97 100 97 92 90 85 79 71 70 68 77 70 66 65 63 62
7 9 11 12 14 13 29 63 66 69 70 71 75 80 83 85 86 86 82 84 79 78 92 97 97 99 95 93 89 79 86 80 74 74 68 60 60 63
8 10 13 15 15 30 65 69 71 74 75 78 80 82 85 84 85 91 91 86 84 83 82 94 99 100 99 99 89 93 94 81 72 66 67 68 69 77
9 11 14 14 34 62 65 68 74 74 77 79 83 87 87 88 86 90 93 94 90 91 92 98 94 88 85 83 97 90 74 68 70 76 82 79 71 81
10 15 15 40 65 67 68 71 74 77 77 82 87 92 94 89 90 91 93 94 93 97 97 99 94 98 86 70 82 99 94 87 88 79 84 82 76 77
15 16 46 67 69 72 74 74 76 76 82 87 92 95 97 95 93 95 98 98 95 92 93 99 99 97 96 91 72 77 99 96 96 85 82 78 82 84
20 55 69 72 73 72 72 74 75 78 82 86 93 93 92 92 92 95 97 100 98 100 96 96 95 98 100 92 81 79 84 98 99 96 88 79 79 77
63 71 73 71 69 66 70 75 79 77 80 79 79 82 87 90 88 92 94 93 97 97 92 92 94 95 96 93 87 83 79 82 93 96 97 99 94 77
70 72 69 62 61 68 73 74 72 72 73 74 75 80 83 83 87 92 93 92 88 86 94 91 88 91 96 94 94 94 89 87 87 81 95 99 98 100

GFSNE_700_rhum_024.txt.gz
RH
66 69 70 68 70 71 71 70 69 66 59 29 21 17 20 20 17 16 13 10 8 6 5 4 3 2 2 2 3 3 4 4 5 6 8 10 17 26
70 74 72 71 74 78 74 73 76 60 30 20 18 20 19 16 13 11 8 7 6 4 3 3 3 3 4 5 5 8 16 23 27 30 32 35 37 51
73 76 73 78 84 80 79 83 57 28 20 19 21 18 15 11 8 7 6 4 3 3 3 4 5 6 10 19 29 33 34 36 39 41 41 40 41 43
76 76 77 87 96 85 87 53 27 18 20 21 17 14 9 7 6 5 4 4 4 4 6 11 24 35 36 38 40 41 44 44 42 41 39 40 39 38
77 76 90 97 91 92 54 25 18 20 18 15 12 8 7 5 4 4 4 4 5 15 36 40 42 44 47 47 46 47 47 44 43 39 37 36 37 37
75 92 96 94 94 34 21 19 20 16 13 9 7 5 4 4 5 5 4 8 27 42 45 43 48 46 48 48 49 49 47 46 47 43 40 43 44 43
97 97 95 80 26 19 20 19 15 10 8 6 4 4 4 6 6 5 16 34 38 45 44 38 47 47 54 55 54 51 55 54 53 50 48 50 48 50
97 98 39 22 19 20 17 12 9 7 4 4 5 6 7 7 7 30 40 38 33 45 41 36 47 43 50 51 50 53 57 57 62 62 56 57 57 56
60 25 20 20 18 15 9 8 5 4 5 7 7 8 7 15 43 45 43 46 43 48 52 42 60 52 58 56 60 64 66 67 69 64 52 57 58 54
20 21 20 16 11 8 5 4 4 6 7 7 8 8 21 48 48 47 52 47 46 58 72 53 65 58 60 59 68 67 68 72 79 76 59 54 54 57
21 18 12 9 6 4 4 4 6 7 8 10 11 39 58 59 65 60 58 57 56 58 73 75 62 57 56 52 62 65 69 73 75 77 68 64 59 57
14 9 6 4 4 4 5 6 6 8 9 13 53 62 64 67 68 68 74 75 74 58 78 75 65 74 49 46 51 60 66 72 74 74 69 65 60 58
7 5 4 4 5 6 7 7 9 9 15 48 53 60 63 65 69 81 91 89 82 77 94 94 71 81 84 63 57 66 70 71 74 68 70 70 66 64
4 4 4 5 6 7 8 10 11 20 51 52 56 61 64 72 80 86 89 92 91 93 90 99 89 91 87 76 69 69 74 80 79 73 73 73 74 73
4 5 6 6 7 9 12 12 29 53 51 53 57 64 68 72 78 83 85 89 84 96 97 97 97 96 93 86 83 73 77 73 82 78 76 71 67 70
5 6 6 6 8 11 13 36 54 52 51 54 60 65 72 78 84 87 82 84 78 80 94 98 96 97 92 90 89 77 84 89 86 88 79 68 69 69
6 6 5 8 13 15 45 61 60 58 61 64 67 72 76 79 84 90 91 89 86 84 78 90 98 98 96 97 90 92 97 93 84 80 79 72 75 82
6 4 8 13 17 55 60 64 63 62 64 69 74 74 76 82 82 87 90 90 89 88 88 93 90 84 84 85 98 92 81 77 75 77 83 82 69 87
5 9 14 30 60 60 61 61 63 65 67 69 70 73 76 80 84 84 87 91 87 90 92 97 90 94 86 72 79 98 95 98 92 83 85 85 81 77
11 16 50 60 62 63 63 64 68 69 69 70 71 73 76 80 80 84 90 90 84 78 80 97 98 97 95 92 77 80 98 93 91 89 86 86 84 82
20 57 64 64 63 61 63 70 66 64 65 68 74 78 81 85 86 89 85 88 89 88 81 86 97 97 98 94 84 80 84 98 97 95 93 85 78 72
60 66 64 59 55 61 68 67 66 65 70 75 78 78 82 88 84 81 82 80 83 83 77 80 91 94 98 97 91 87 84 84 92 96 98 97 90 82
65 62 55 53 60 64 69 66 64 65 71 76 78 81 79 77 86 86 81 72 70 74 81 79 87 95 98 98 97 94 92 92 93 87 90 97 96 94

GFSNE_700_rhum_027.txt.gz
RH
96 99 100 83 77 75 72 70 71 70 67 70 69 58 32 20 20 22 22 19 15 12 9 7 6 4 3 3 2 2 2 3 3 3 4 6 9 11
98 98 100 96 80 78 75 73 74 73 73 70 67 31 20 21 22 19 15 12 9 7 5 3 3 3 2 3 3 4 6 9 15 21 23 27 28 28
100 98 96 85 83 80 77 75 78 83 79 72 28 20 22 21 16 12 9 7 5 3 3 3 3 3 4 8 17 26 31 33 31 32 34 34 33 35
100 99 96 96 90 78 76 85 91 88 71 23 21 23 20 14 9 7 5 3 3 4 4 4 6 20 33 35 36 37 36 36 36 36 36 39 39 37
100 94 97 89 82 84 90 92 89 44 21 22 22 17 12 8 5 3 3 4 4 5 9 25 38 41 38 35 36 34 35 35 36 37 38 38 37 37
99 96 96 84 90 99 95 77 25 21 22 18 13 9 6 4 3 4 4 5 5 16 39 38 36 38 42 44 39 37 37 38 40 42 43 41 38 38
98 96 96 98 100 94 34 21 22 20 15 9 7 4 3 4 5 6 6 5 22 35 36 33 38 42 49 48 46 46 46 47 49 48 43 40 39 37
96 96 98 98 47 22 22 22 16 10 8 5 3 4 5 6 6 6 10 30 25 36 39 32 44 48 52 51 54 55 59 63 60 54 52 51 48 42
99 97 59 24 21 22 18 12 8 6 4 4 5 6 6 7 7 21 34 32 36 38 43 36 56 50 55 56 61 62 65 64 61 59 58 59 59 52
55 25 21 22 19 13 9 6 4 4 5 6 6 7 8 12 33 31 34 36 38 50 68 53 62 56 57 58 63 66 70 71 70 70 68 66 66 61
22 23 20 14 9 7 5 4 4 6 6 7 8 8 25 40 44 43 49 50 52 58 67 79 66 58 57 51 55 61 69 72 74 71 71 72 74 66
20 15 10 8 6 4 4 5 5 5 6 8 12 42 46 49 55 60 64 64 70 60 72 78 70 74 52 46 47 54 67 76 81 82 80 77 73 64
10 8 7 5 4 5 5 5 5 5 8 14 38 43 50 54 61 70 75 77 80 79 88 93 78 80 81 60 52 63 73 80 86 83 83 82 79 72
8 7 5 5 5 5 5 4 5 8 19 39 40 47 50 59 66 74 79 84 84 86 92 98 86 91 90 78 72 71 80 85 86 80 80 80 82 79
8 6 5 5 5 5 4 7 10 28 40 41 45 52 58 64 72 75 78 80 75 85 96 100 97 92 88 84 82 76 82 78 93 90 86 81 78 83
7 6 6 6 5 5 10 13 39 42 44 47 51 55 60 63 70 74 70 70 67 73 87 99 97 94 90 91 90 81 90 86 86 94 83 73 74 75
7 7 7 5 6 12 22 50 51 52 55 59 60 58 61 61 66 71 71 72 74 76 72 87 98 100 97 98 95 98 98 90 90 85 85 78 80 86
9 9 7 11 14 40 59 63 61 61 63 63 63 61 60 64 66 70 70 75 76 80 83 88 88 86 83 84 96 93 83 78 81 80 85 81 65 82
11 9 13 26 57 59 61 62 64 65 64 61 60 63 64 68 64 69 73 74 73 80 85 91 84 89 88 80 82 98 96 93 94 85 84 84 78 73
10 14 41 56 61 62 62 63 66 64 62 61 66 70 68 65 63 67 78 83 78 70 69 85 91 92 97 98 83 82 99 95 93 88 87 87 82 77
15 47 57 58 58 58 64 66 61 60 60 66 69 72 76 72 72 79 81 85 80 75 71 76 85 91 98 96 88 87 87 98 98 96 97 97 84 75
50 57 56 52 54 62 65 64 62 61 65 71 73 77 80 81 76 73 66 60 62 67 68 71 74 89 98 96 95 93 86 86 97 99 97 95 85 78
53 52 49 56 62 65 65 64 62 64 67 70 73 73 65 61 63 60 56 57 64 67 73 72 70 85 96 97 98 96 97 95 95 83 91 98 98 99

GFSNE_700_rhum_030.txt.gz
RH
100 98 100 100 98 91 94 99 86 79 77 77 77 80 80 78 67 32 21 23 24 19 14 11 8 6 4 3 3 2 2 2 2 2 2 3 4 5
100 99 100 99 100 98 100 100 95 83 79 76 81 84 82 65 23 22 23 19 14 10 7 5 4 3 3 2 2 3 3 3 4 9 14 21 24 26
99 100 100 100 100 99 98 91 88 89 75 78 84 86 55 22 23 20 14 10 7 4 3 3 3 3 3 3 4 5 13 22 28 29 30 30 32 34
87 100 100 100 100 99 99 98 90 81 86 85 83 35 22 22 16 10 8 4 3 3 4 4 4 4 5 12 25 29 27 26 26 27 28 31 33 34
99 99 98 99 100 98 99 90 88 95 90 70 23 23 19 12 8 5 4 3 4 4 5 5 9 24 30 30 30 29 29 30 29 29 28 30 33 35
98 100 99 99 100 98 98 97 97 87 31 22 22 15 9 6 4 4 3 3 4 5 12 26 27 28 38 38 32 33 38 41 41 41 40 40 39 38
100 99 98 99 98 96 99 96 47 22 23 18 10 7 4 4 4 3 3 4 5 22 23 26 33 35 41 44 51 57 56 55 55 54 52 50 48 47
99 98 98 98 98 98 68 22 23 20 13 8 6 4 4 4 4 4 4 7 15 26 22 24 34 40 48 50 52 54 60 63 62 59 54 52 51 53
98 98 98 98 81 25 23 20 14 9 6 5 4 4 4 4 4 5 13 21 22 32 32 26 46 45 52 52 59 65 70 69 65 62 57 52 52 55
98 98 69 25 23 21 15 10 8 6 5 5 5 4 5 5 6 16 19 22 27 41 48 40 55 50 53 55 61 63 67 69 68 68 66 62 61 61
30 23 25 22 16 11 9 8 6 5 5 5 5 6 7 10 26 24 32 33 36 45 56 67 55 51 49 49 56 57 60 65 68 70 72 72 70 70
26 23 16 11 9 8 8 6 5 5 5 5 7 10 18 32 36 39 42 45 52 44 68 69 61 63 44 44 49 61 69 76 82 84 83 78 78 74
15 11 10 9 8 8 7 6 6 5 5 7 11 34 38 41 47 53 55 60 61 65 84 84 68 72 68 58 53 65 72 77 79 76 80 82 79 77
11 10 10 10 9 7 6 6 6 5 7 13 37 40 44 51 56 57 63 67 64 74 81 92 84 85 80 73 66 66 74 78 81 76 77 79 82 86
12 10 10 9 8 7 7 6 5 9 27 41 43 47 52 53 56 57 64 64 66 78 87 95 91 84 79 75 79 76 82 73 85 87 82 77 77 82
10 9 9 8 8 8 6 8 16 38 41 45 51 53 52 56 59 58 60 63 64 70 80 85 85 82 80 82 90 90 94 90 91 88 84 75 78 82
9 8 9 9 8 8 16 38 42 43 48 53 53 51 55 60 64 60 60 60 65 64 64 73 80 83 84 81 87 99 96 87 82 81 83 77 78 91
9 10 9 8 14 36 46 48 47 50 53 56 56 56 60 64 63 60 58 67 69 68 69 73 73 71 69 72 93 85 89 83 78 76 81 80 68 81
10 8 9 27 45 46 50 52 55 57 58 57 57 63 65 68 69 63 68 69 59 55 56 62 66 72 70 71 75 98 93 98 97 85 86 88 79 77
7 13 34 39 45 47 48 52 56 58 58 60 62 68 69 68 68 65 62 58 54 53 56 65 74 79 81 84 78 79 99 92 92 89 90 90 82 76
17 32 38 42 43 45 52 56 57 55 57 61 65 66 68 62 60 63 58 57 62 72 66 44 60 85 79 87 83 80 86 100 98 97 96 87 82 73
31 36 38 39 47 54 59 60 60 57 59 62 64 65 60 66 74 75 66 62 69 75 56 51 51 56 73 96 92 92 86 91 98 97 97 97 99 91
34 35 40 52 60 65 69 68 64 59 59 62 62 59 65 73 75 78 74 64 68 72 39 41 58 64 78 98 97 95 95 92 90 75 90 97 95 90

GFSNE_700_rhum_033.txt.gz
RH
89 95 100 100 94 100 100 99 99 98 95 98 99 93 86 82 83 74 76 73 35 23 25 20 13 10 7 5 4 3 3 2 2 2 2 2 2 2
98 100 99 98 96 100 100 100 100 99 99 99 99 97 88 88 85 81 66 29 24 23 14 10 6 5 4 3 2 2 2 2 3 3 4 7 11 15
100 100 96 100 99 100 100 100 100 99 99 100 98 98 97 88 88 46 23 24 16 10 6 4 4 3 2 2 2 3 4 7 11 15 18 20 22 22
93 100 95 100 98 100 97 100 100 99 98 99 98 98 97 88 32 24 20 12 7 5 4 3 2 2 3 5 11 12 11 14 17 18 21 23 24 26
98 95 100 100 100 99 95 99 99 99 98 97 98 97 52 22 23 14 8 6 4 3 3 3 3 7 16 17 15 15 17 19 20 23 27 31 34 34
100 100 100 100 100 99 100 98 98 97 97 97 96 49 22 18 11 7 6 4 3 3 3 7 16 18 24 22 23 24 26 29 33 37 38 38 38 38
100 100 100 100 99 99 100 98 98 97 96 78 22 19 11 8 6 5 4 3 3 5 15 20 25 34 38 37 39 41 42 44 45 45 47 47 46 46
100 100 99 98 98 99 98 97 97 90 24 20 13 9 7 6 5 4 4 3 3 24 20 23 34 38 37 40 44 46 51 52 54 54 52 50 49 48
99 98 96 98 98 97 97 81 24 20 14 9 7 6 5 5 4 4 3 5 16 30 28 19 33 30 40 42 48 51 54 57 60 60 57 52 48 47
99 96 97 98 76 37 23 19 13 9 8 7 6 6 5 5 4 4 9 18 23 35 32 17 39 33 40 42 48 53 58 63 64 64 61 59 56 55
96 60 28 24 22 17 14 11 8 8 7 7 6 6 5 4 6 11 27 29 29 36 40 30 35 34 38 43 53 59 65 64 64 67 67 68 66 66
26 23 18 16 14 11 9 9 9 8 8 7 6 5 5 8 26 33 34 35 33 33 45 32 39 41 31 37 41 52 63 70 75 77 75 76 75 72
17 15 14 12 10 10 10 10 9 7 6 6 6 9 22 43 44 44 43 40 38 48 56 50 45 52 46 43 42 51 58 70 74 74 72 76 78 78
15 14 13 12 11 10 8 7 6 6 5 9 24 45 47 48 51 46 48 46 46 54 64 61 52 58 54 50 50 54 69 73 71 74 76 75 77 82
12 11 9 7 6 6 7 6 5 9 23 42 46 48 50 51 51 52 53 48 51 60 72 81 76 70 64 58 54 53 72 78 84 79 78 71 70 73
5 5 6 6 8 8 6 10 22 32 35 43 50 52 52 52 54 54 55 45 49 62 75 78 68 58 53 56 59 57 73 91 91 85 78 72 73 80
5 6 8 8 7 8 19 26 30 37 42 44 46 47 48 51 57 58 58 54 56 52 48 55 57 56 60 63 66 69 69 83 78 70 74 73 76 82
6 7 6 6 14 24 27 35 38 42 45 47 47 47 51 56 58 61 58 51 47 48 49 58 67 64 47 40 65 62 75 71 70 73 79 74 65 85
6 6 7 20 24 32 38 42 46 47 48 48 48 50 54 56 55 52 54 60 56 54 59 76 73 51 44 39 42 89 93 82 80 76 81 80 72 74
6 10 22 27 36 39 40 44 48 50 50 49 50 53 55 53 52 57 67 68 66 59 61 78 62 40 59 61 38 61 98 92 90 84 78 72 79 79
11 22 26 34 36 38 46 52 55 57 55 53 54 57 57 51 54 60 64 69 71 70 66 68 52 36 60 63 53 70 79 99 97 93 85 88 72 60
22 27 32 33 41 51 57 61 65 65 63 60 58 58 59 55 57 60 66 67 70 73 66 64 44 28 53 71 64 76 77 76 93 97 98 97 97 76
27 30 32 45 54 58 61 67 71 73 73 71 66 61 61 56 60 66 70 75 76 70 65 62 47 36 56 58 66 81 87 85 82 76 94 97 95 88

GFSNE_700_rhum_036.txt.gz
RH
90 94 94 92 93 99 100 96 96 97 100 98 100 99 92 88 88 97 95 90 88 81 79 72 35 24 22 14 10 6 5 4 3 3 2 2 2 2
98 99 97 100 95 100 95 85 100 99 100 99 98 99 99 95 98 100 95 92 89 87 69 30 24 20 13 8 6 4 3 3 2 2 2 3 4 5
92 97 100 98 99 94 90 98 100 100 100 99 99 99 100 100 98 98 97 94 90 80 32 23 14 10 7 5 3 3 2 2 2 4 6 7 7 8
95 100 100 97 100 98 98 99 100 100 99 100 99 99 99 98 96 96 97 93 74 24 17 10 7 5 4 3 3 2 3 5 6 8 10 12 13 14
85 87 100 98 100 100 100 100 100 99 99 98 98 98 98 98 97 96 96 56 19 11 7 5 5 4 3 2 4 6 8 13 15 15 17 20 23 25
93 95 99 100 100 100 100 100 100 99 98 98 100 98 97 98 97 76 22 12 8 6 5 4 3 3 7 10 12 17 19 17 17 21 25 27 30 31
99 95 99 100 100 100 98 99 98 96 96 98 97 95 97 77 21 14 9 7 6 5 4 4 6 15 17 20 22 22 22 24 28 32 34 37 38 39
99 93 100 100 99 99 98 98 97 97 93 97 97 40 21 14 8 7 6 6 6 5 5 9 24 25 28 28 30 31 30 31 36 37 38 37 38 36
99 100 99 100 97 96 96 97 95 93 76 29 18 12 9 8 8 7 6 6 5 8 14 20 36 26 29 31 34 36 37 41 43 44 44 44 42 41
98 99 94 91 91 95 98 73 33 23 16 10 9 9 9 8 8 7 6 5 7 31 36 25 38 26 27 34 40 44 48 53 56 56 54 52 50 50
96 96 98 80 42 26 24 20 14 10 10 10 10 9 8 7 6 5 7 20 30 42 43 32 38 29 31 37 40 43 49 54 56 59 59 59 59 59
45 27 25 23 18 15 13 12 11 11 10 8 6 6 6 5 6 16 32 37 42 41 38 31 36 35 27 36 38 42 43 48 50 54 58 65 71 68
20 18 17 16 13 13 12 10 7 6 6 6 5 4 7 18 29 33 41 45 46 48 42 32 41 49 45 36 38 42 46 48 43 50 64 70 72 71
17 15 13 10 8 5 4 4 5 5 4 6 14 22 28 32 39 44 47 48 52 52 47 47 48 55 50 42 39 42 50 53 53 54 66 74 73 74
4 3 3 3 3 4 5 5 5 10 17 22 28 35 40 46 48 49 53 54 54 55 58 66 62 53 47 46 47 50 39 33 58 62 70 68 65 68
2 2 2 3 4 4 5 8 16 21 27 35 38 41 44 46 47 48 54 58 60 63 55 55 55 52 52 62 63 46 40 39 44 68 71 67 69 74
2 2 3 4 5 5 12 17 23 32 34 36 39 42 44 46 51 56 58 58 49 50 55 60 64 62 64 66 51 38 43 38 46 64 66 64 70 77
2 3 5 5 7 14 16 24 30 33 37 40 43 44 47 50 55 58 55 51 56 62 64 65 64 60 61 50 29 28 39 44 65 71 77 71 61 74
3 5 5 8 16 18 27 31 34 38 44 48 50 50 50 52 54 55 52 57 63 66 64 68 67 66 59 37 20 39 55 52 73 84 84 76 64 69
4 5 8 16 18 27 31 34 41 48 55 58 58 56 53 53 57 56 53 57 62 64 63 67 74 75 70 58 20 37 65 61 75 74 69 74 76 69
5 7 17 21 29 32 35 45 54 60 64 67 69 66 62 59 58 59 54 57 64 69 68 66 72 77 75 64 29 38 47 66 89 94 85 79 76 71
6 16 24 31 34 37 48 56 60 65 69 71 73 73 73 70 66 63 63 60 62 67 67 64 67 67 62 57 33 45 43 46 77 96 97 96 90 72
14 23 29 31 38 51 55 59 67 71 72 73 76 79 81 81 84 79 72 71 70 66 65 63 68 64 60 64 34 46 56 49 69 86 95 97 95 94

GFSNE_700_rhum_039.txt.gz
RH
76 91 92 91 97 100 100 100 100 99 99 100 99 99 98 98 100 87 98 98 93 99 97 98 95 90 87 77 68 33 24 20 12 8 6 4 4 4
74 78 84 89 98 100 100 99 98 99 100 99 96 100 97 97 100 100 100 99 100 99 99 98 96 92 86 78 35 23 14 9 7 5 4 4 3 3
79 80 80 87 94 100 100 92 92 100 95 98 100 99 100 100 99 98 99 99 97 98 98 99 97 97 90 47 22 14 8 6 6 5 4 3 4 4
82 86 91 91 93 94 90 100 100 100 94 98 98 99 100 98 99 98 95 93 94 96 96 98 97 75 28 15 10 7 6 6 4 3 4 5 8 11
73 87 94 93 95 93 94 95 100 100 100 100 97 99 98 99 98 96 90 91 95 98 98 86 26 13 8 7 7 7 5 4 5 6 11 13 13 14
59 71 87 91 96 91 90 99 100 100 99 99 98 98 95 97 98 96 95 100 96 48 15 11 8 7 7 7 6 5 6 10 15 16 14 13 18 23
64 63 76 95 100 98 100 100 99 100 99 99 98 95 98 100 100 100 89 36 18 10 9 8 8 8 7 5 7 13 20 20 16 14 16 22 26 27
88 86 95 100 90 99 99 87 100 96 95 97 97 98 100 97 50 20 14 11 11 9 10 8 6 5 7 18 28 27 21 18 18 23 29 33 35 36
100 93 95 100 99 100 100 98 95 98 99 98 100 58 23 14 11 11 11 11 9 7 6 5 12 18 31 33 28 24 24 26 29 34 38 40 41 41
100 98 99 94 99 99 91 90 95 78 49 26 18 13 12 12 11 8 6 6 6 7 15 17 37 32 31 29 29 29 30 32 35 38 38 37 38 39
98 97 98 97 89 76 41 28 23 19 15 13 13 10 6 5 5 5 5 5 16 27 39 33 37 31 27 31 38 40 40 41 42 44 44 47 47 47
91 47 28 25 22 19 17 16 14 13 9 5 4 4 4 4 4 10 19 22 31 36 38 37 40 34 27 34 37 37 36 39 41 40 41 45 48 47
20 19 19 18 15 11 8 6 4 4 4 4 4 4 7 13 17 22 29 34 38 43 46 39 43 41 37 32 33 38 39 44 46 42 33 30 38 42
8 5 4 3 3 2 2 3 3 4 4 4 10 14 20 25 29 33 35 38 41 47 53 50 46 45 40 38 37 41 50 51 44 33 32 30 36 48
2 2 2 2 2 2 2 4 4 5 10 14 20 26 28 31 34 36 39 41 46 53 56 56 51 54 52 47 43 47 49 33 23 30 35 32 46 66
2 2 2 2 2 3 4 4 7 14 17 25 28 31 34 37 39 40 43 47 50 56 54 53 66 64 56 54 51 50 54 30 22 36 39 38 67 78
2 2 2 2 3 4 5 9 15 20 28 33 36 38 41 41 43 45 47 50 51 51 53 66 66 63 60 57 58 60 57 30 34 43 40 34 58 75
2 2 2 3 4 5 10 16 23 33 36 38 42 45 46 47 47 50 51 52 53 52 52 62 63 65 61 56 65 55 56 42 34 45 44 44 61 75
2 2 3 4 5 10 16 23 32 34 38 44 51 54 57 57 56 56 56 56 56 53 52 58 65 74 64 52 58 67 65 62 41 52 57 58 66 74
3 3 4 5 9 18 24 33 36 39 48 55 60 63 65 65 66 67 66 63 62 61 56 58 63 71 69 63 56 60 82 73 40 55 48 42 65 77
4 4 5 8 19 26 33 36 40 51 58 62 67 71 72 71 71 72 72 75 73 71 65 63 67 71 69 69 65 64 62 64 42 72 66 48 64 71
4 4 8 18 24 32 33 41 53 58 63 70 71 73 76 78 77 77 77 75 77 77 75 76 78 77 78 78 70 63 50 44 42 80 85 78 83 67
5 11 19 27 31 35 46 50 52 66 75 75 76 78 79 79 81 80 80 82 84 83 86 81 82 84 81 77 68 56 52 32 48 62 58 70 95 92

GFSNE_700_rhum_042.txt.gz
RH
63 72 77 78 83 85 85 97 99 99 99 96 95 100 100 100 100 98 100 99 100 100 100 99 99 98 99 99 95 91 96 93 84 76 54 26 18 13
66 65 68 80 84 91 96 100 100 99 99 100 100 99 99 99 97 100 99 99 100 100 98 99 98 95 94 88 88 88 93 99 96 65 22 14 11 9
70 72 77 78 80 86 91 94 99 100 99 99 99 99 99 98 100 98 100 100 98 90 93 94 92 91 87 89 92 94 98 81 35 16 10 9 8 7
80 83 77 77 86 89 95 98 100 100 99 99 98 100 96 97 99 99 100 100 100 99 88 91 92 91 90 95 93 74 34 18 11 9 9 8 7 6
88 86 89 80 64 77 97 99 100 100 100 99 99 100 99 99 95 96 100 100 94 97 99 94 92 92 67 24 14 11 10 10 9 8 8 6 6 8
92 80 90 86 72 59 80 96 99 100 100 99 96 99 99 99 98 100 100 97 97 97 89 76 34 16 11 10 10 9 10 9 8 7 7 10 14 15
78 75 71 95 91 86 90 100 100 100 99 100 92 100 99 100 100 99 96 94 75 26 18 12 11 11 10 10 9 8 7 6 8 14 18 17 16 16
74 73 95 98 100 99 100 99 99 98 100 91 98 99 100 99 93 64 24 19 13 11 13 11 9 7 6 5 6 9 15 22 22 19 18 19 22 24
99 100 100 100 100 100 96 99 99 97 99 100 98 93 59 26 20 14 13 12 7 5 3 4 4 5 10 21 28 28 25 24 23 22 23 24 25 26
98 98 97 98 98 98 97 97 96 92 73 39 24 19 16 14 12 7 4 3 3 4 4 8 14 24 32 35 30 27 30 33 32 32 32 32 32 31
92 94 97 88 77 49 38 28 22 20 18 16 15 11 7 3 3 3 3 5 10 15 16 22 26 27 32 34 34 37 39 38 38 38 37 36 36 38
23 23 24 20 19 18 14 11 10 8 6 4 3 3 3 3 4 9 13 16 21 26 26 25 31 29 31 38 41 39 37 36 36 37 40 42 43 40
4 3 3 3 2 2 2 2 2 2 2 2 3 3 5 10 14 19 22 25 28 29 30 29 38 38 34 29 35 37 38 39 39 45 44 35 24 23
2 2 2 2 2 2 2 2 2 2 3 3 4 9 14 21 24 27 29 31 33 35 38 37 38 39 34 34 34 42 46 44 45 45 30 18 18 28
2 2 2 2 2 2 2 2 3 3 4 6 11 17 25 28 30 32 35 37 38 41 46 47 44 41 41 43 39 46 45 45 50 48 38 22 26 34
3 3 2 2 2 2 2 3 3 4 9 14 22 29 32 36 38 39 40 42 42 47 51 52 48 45 46 48 45 44 51 52 54 54 50 28 31 42
4 3 3 3 3 3 3 4 5 12 17 26 32 35 39 43 47 48 49 49 48 49 52 56 56 51 50 53 48 51 51 53 59 58 53 37 26 42
3 3 3 3 3 4 4 6 14 18 28 35 38 42 48 53 58 60 60 60 59 58 57 57 56 55 54 52 57 56 51 53 57 58 56 46 23 33
3 4 4 3 3 4 7 15 20 30 36 39 46 55 59 63 65 66 66 66 68 69 70 69 68 68 64 58 60 62 60 60 64 62 63 61 35 32
4 5 4 4 5 8 16 22 33 36 38 49 58 61 65 67 69 71 72 72 73 76 76 82 85 88 86 78 63 60 74 69 74 66 60 56 30 41
6 6 6 8 11 17 22 30 34 40 52 58 60 68 76 75 77 80 79 80 79 77 73 79 88 91 89 86 75 70 73 77 73 63 58 42 28 41
10 11 12 15 18 24 28 33 44 51 53 55 71 79 81 81 82 83 86 86 87 85 82 84 86 87 88 89 74 61 49 48 54 58 48 49 59 44
14 16 20 24 30 36 41 43 44 51 72 79 82 85 86 86 90 91 94 96 95 91 89 78 73 67 52 40 37 38 48 53 47 34 44 62 61 61

GFSNE_700_rhum_045.txt.gz
RH
50 54 63 65 72 82 73 97 98 98 99 96 99 98 97 100 99 99 99 99 99 99 99 99 99 99 100 100 100 99 98 91 86 85 80 81 86 92
50 62 67 75 76 84 83 99 100 100 94 88 99 96 96 99 99 99 99 99 99 99 98 98 99 100 100 100 100 95 89 83 80 80 83 86 89 89
60 58 58 66 80 79 82 91 99 100 100 97 99 100 99 100 96 99 99 99 95 99 98 98 99 100 99 100 98 95 88 83 84 86 86 80 56 29
69 71 69 75 80 82 84 81 89 99 97 100 100 100 99 100 100 99 99 99 98 95 100 98 100 99 97 97 92 88 84 80 61 36 21 16 12 10
81 70 84 91 88 93 88 96 90 85 99 99 99 100 99 99 99 100 100 96 100 100 98 95 91 93 94 89 81 60 37 22 15 12 12 10 10 10
80 83 84 88 81 83 86 95 89 90 96 99 95 98 100 100 100 99 100 99 99 96 88 88 88 69 38 22 16 13 12 11 11 11 11 10 9 8
72 86 80 75 78 94 78 99 99 100 99 98 95 99 100 100 100 98 96 95 96 80 43 24 18 13 12 12 12 12 10 8 6 6 6 9 15 19
71 71 87 84 77 84 95 99 100 100 99 100 99 100 100 99 98 98 70 29 21 15 15 12 12 9 6 4 4 4 4 7 15 22 22 21 19 17
83 85 93 93 90 99 97 94 98 91 93 99 99 100 94 55 24 21 16 14 12 8 4 3 3 3 4 7 11 19 25 26 24 21 20 20 22 22
69 85 92 95 92 81 78 79 82 74 55 38 24 21 18 17 14 11 7 4 3 3 3 5 9 16 22 25 26 28 27 25 25 27 28 28 28 28
17 17 18 19 21 19 17 16 15 13 12 10 8 8 6 4 4 3 3 3 4 8 12 16 21 26 29 30 31 32 32 31 33 34 34 35 34 32
3 3 2 2 2 2 2 2 2 2 2 2 2 3 3 3 3 3 5 11 15 20 22 24 26 26 35 40 38 37 37 36 35 37 38 40 40 40
4 3 3 2 2 2 2 2 2 2 2 2 2 3 3 4 5 11 17 22 25 26 28 28 32 31 31 37 37 38 41 42 42 44 43 43 43 40
6 5 4 4 3 3 2 2 2 2 3 3 4 4 6 11 16 23 26 28 30 31 34 34 34 36 34 32 32 39 44 44 44 48 50 49 47 45
7 6 6 4 3 3 3 3 3 3 3 4 5 10 15 22 27 29 32 33 35 37 38 38 39 39 38 35 32 33 38 42 45 47 51 50 51 50
7 7 5 3 3 3 3 3 3 4 4 7 14 18 26 32 35 36 39 41 44 47 47 46 46 46 44 43 41 38 41 40 43 48 50 49 52 52
7 6 4 4 4 4 4 3 4 6 9 16 19 29 34 36 40 46 50 53 55 56 58 58 57 56 54 53 49 51 51 49 53 53 53 52 54 56
6 4 5 5 5 5 4 5 7 12 17 22 32 37 40 45 52 59 61 63 65 67 68 68 66 63 63 62 64 59 58 61 63 62 61 59 54 54
5 5 7 7 7 7 8 10 14 17 25 34 37 39 46 56 59 66 72 72 74 74 77 79 77 76 65 57 67 72 66 73 70 64 66 66 56 47
6 8 9 10 10 12 13 17 21 28 32 34 39 50 57 59 69 77 81 80 79 79 79 88 90 87 78 72 60 62 77 66 72 62 59 61 50 46
8 10 12 13 15 18 21 25 29 34 42 47 49 52 65 77 80 85 87 90 89 86 80 86 95 93 86 81 67 61 61 57 47 42 38 38 40 46
11 13 15 18 21 25 29 34 37 40 42 48 66 78 82 84 86 88 93 92 94 93 92 92 89 81 70 57 47 41 38 39 52 62 62 54 45 37
16 19 22 25 27 30 33 37 44 57 72 76 80 84 83 81 87 89 93 95 95 90 80 68 61 56 52 57 59 53 55 52 47 41 36 48 56 56

GFSNE_700_rhum_048.txt.gz
RH
41 43 44 48 52 59 67 69 75 80 75 80 82 98 97 100 100 100 100 99 99 99 99 99 98 98 98 98 99 99 99 100 99 98 98 96 90 85
42 43 42 48 57 60 64 67 78 92 90 74 76 98 98 100 99 94 99 99 99 99 98 99 99 98 99 98 98 98 98 99 99 99 92 89 85 82
32 38 42 53 62 65 66 70 74 80 86 94 91 92 98 99 98 96 98 98 98 99 98 98 95 99 99 100 100 98 100 98 98 92 90 89 82 78
39 47 60 75 79 69 76 90 92 93 99 99 99 88 98 99 98 98 98 98 98 99 100 97 100 99 100 100 98 90 90 90 89 83 80 68 47 28
39 43 55 63 71 76 78 80 78 82 87 98 98 94 95 97 98 99 98 97 100 100 100 99 99 100 97 93 89 88 89 80 66 45 26 19 15 13
38 40 45 47 57 65 76 76 75 86 93 94 97 99 99 98 97 98 98 98 99 99 99 100 94 93 94 81 58 35 22 17 14 14 13 13 12 12
45 44 54 57 61 74 78 78 80 88 87 98 99 98 100 99 99 100 100 98 98 97 97 94 67 32 21 17 15 14 12 10 7 6 5 4 4 5
58 57 61 65 73 72 71 86 97 93 94 88 90 94 99 100 99 99 100 100 91 41 23 18 16 13 11 8 5 3 3 3 4 4 6 10 17 20
42 38 62 69 71 74 58 54 75 87 96 96 98 98 97 86 77 66 29 20 16 14 12 10 7 4 3 3 3 5 6 10 15 18 20 21 20 20
8 5 6 7 19 25 14 10 11 13 14 16 18 18 17 16 13 12 10 8 7 5 3 3 3 4 8 11 14 16 18 19 20 21 22 24 26 26
5 4 4 3 3 2 2 2 2 2 2 2 2 2 3 3 3 3 4 4 3 4 4 7 12 16 19 21 22 22 23 25 28 29 29 28 27 27
9 8 6 5 4 4 4 3 3 3 2 2 2 2 2 2 2 3 3 4 4 9 15 18 23 26 27 28 29 30 32 32 32 31 30 31 32 34
14 11 9 8 8 8 6 4 4 3 3 2 2 2 3 3 3 4 5 11 17 22 25 26 29 30 30 33 35 36 36 36 37 37 39 41 42 40
21 15 12 13 12 9 5 4 3 3 3 3 3 3 3 4 5 10 15 23 28 31 32 31 32 34 34 37 38 45 45 41 43 46 49 49 44 43
23 15 12 13 10 5 4 4 4 4 4 4 4 4 5 9 13 19 29 33 36 39 40 41 41 41 40 40 41 42 38 43 45 47 48 48 45 46
23 14 12 9 5 4 5 5 5 5 5 5 6 8 12 16 23 31 36 40 43 49 49 50 50 49 49 50 47 47 49 46 46 44 45 45 46 48
14 10 8 5 5 6 6 6 7 7 8 8 10 13 16 25 33 38 42 47 53 60 67 68 63 60 59 59 54 56 57 54 56 58 57 52 53 55
10 8 6 6 7 8 8 10 10 11 12 14 16 22 29 35 38 44 51 60 62 68 73 77 76 71 70 69 73 67 67 65 70 68 65 58 52 62
7 7 7 8 9 11 13 15 16 18 20 22 26 30 33 37 47 58 61 65 73 78 82 87 88 88 76 68 73 81 73 76 71 68 68 64 54 50
7 8 8 10 12 15 19 21 23 27 31 35 38 42 46 49 52 63 77 79 80 82 83 93 96 95 90 84 69 72 92 77 71 64 58 51 43 38
9 9 12 15 19 23 25 27 29 31 34 37 39 44 56 73 79 82 83 84 82 82 78 85 97 96 89 84 73 66 57 52 49 46 46 48 48 46
11 13 16 22 27 29 30 32 35 40 45 50 60 71 77 76 74 71 71 72 80 84 84 86 89 88 85 78 66 57 51 54 65 67 66 59 53 44
14 17 21 25 29 31 30 30 33 41 47 52 58 62 65 68 77 82 84 85 84 86 89 82 83 79 68 66 68 65 65 59 54 46 41 65 73 70

GFSNE_700_rhum_051.txt.gz
RH
40 39 39 39 44 43 50 54 57 58 58 59 62 65 77 85 87 87 86 98 98 100 99 99 99 95 98 100 97 98 99 98 98 98 98 99 100 99
36 32 29 30 31 31 35 50 60 66 67 64 66 78 80 81 79 81 91 98 98 99 99 99 98 99 98 98 96 98 98 98 98 98 98 98 97 93
26 26 26 29 32 38 43 52 63 59 67 68 73 74 81 91 90 89 93 94 99 100 100 99 97 99 98 98 96 98 99 100 99 100 99 97 94 90
21 21 29 30 35 40 44 52 57 65 74 80 76 75 79 93 95 90 95 99 100 100 99 98 98 97 98 99 100 99 99 100 99 97 92 92 93 89
22 32 35 33 37 43 43 45 55 66 72 74 77 76 77 87 96 98 96 98 98 97 98 98 100 100 100 99 99 99 99 99 90 88 92 88 77 56
26 32 42 41 39 50 52 53 53 65 69 63 72 76 71 83 92 95 95 100 100 100 100 100 100 99 98 95 98 99 96 85 63 37 22 17 15 14
38 43 51 50 47 55 57 56 60 67 59 63 68 76 84 96 93 94 99 99 98 97 98 98 96 96 96 93 70 39 23 17 14 11 8 5 4 4
56 54 44 56 58 56 58 40 32 29 30 46 55 69 83 89 99 100 93 93 97 96 94 95 77 47 25 18 15 11 7 4 3 3 3 3 3 6
19 10 6 4 7 8 17 10 4 3 3 4 6 9 11 14 16 18 20 20 20 23 18 17 15 11 8 5 3 3 3 4 6 8 11 16 19 20
7 6 6 6 5 4 4 4 4 3 3 3 3 2 2 2 2 2 3 4 4 5 4 4 4 3 3 3 5 9 12 15 17 18 20 19 20 23
12 13 12 10 8 7 7 7 8 7 6 5 3 3 2 2 2 2 2 2 2 3 3 3 3 4 8 13 17 19 20 20 20 21 23 25 28 28
21 20 19 16 14 14 14 14 11 8 5 3 3 3 3 3 3 3 3 3 3 3 4 6 13 17 21 24 24 26 27 28 29 30 30 32 31 27
31 31 28 24 19 18 18 13 8 4 4 4 3 3 3 3 3 3 4 4 5 9 14 20 24 28 28 31 33 33 34 35 35 36 35 34 29 28
35 34 32 27 20 18 14 8 4 4 4 4 5 5 5 5 5 6 7 10 14 22 28 28 30 35 35 36 35 42 40 39 40 41 39 36 33 34
37 36 31 21 16 12 7 5 5 5 6 7 7 7 7 7 8 10 14 20 28 34 36 38 39 40 41 43 44 45 43 48 52 53 51 45 41 41
40 34 24 15 11 7 5 5 6 7 9 10 10 10 10 11 12 15 23 31 36 40 41 45 50 51 51 54 54 57 60 52 54 54 52 50 49 48
36 26 14 10 8 6 6 7 9 12 14 15 15 16 16 19 23 28 33 37 41 51 62 67 65 63 63 63 61 67 70 66 65 64 60 54 55 57
34 20 11 8 7 7 8 10 15 18 19 20 22 24 26 28 31 35 40 48 54 61 64 74 80 80 78 77 81 77 77 78 83 76 71 62 55 66
33 19 10 8 8 9 12 16 20 22 23 24 25 28 31 36 40 45 49 52 59 76 82 86 90 93 86 75 74 84 89 97 94 88 88 80 64 62
38 20 12 10 10 12 16 22 25 25 25 25 28 35 42 46 52 62 75 79 82 85 84 87 94 98 90 86 74 72 87 90 89 82 80 72 63 56
46 24 14 11 12 16 20 24 26 25 23 24 29 37 47 53 60 67 70 72 70 71 72 82 93 91 85 83 71 68 72 76 73 68 60 56 51 49
53 34 19 15 15 20 24 27 29 26 25 25 28 35 45 52 58 64 67 70 76 80 79 84 87 88 87 87 74 63 59 65 77 82 80 74 63 47
56 53 29 17 18 24 28 31 31 28 27 28 31 36 42 48 55 58 62 66 70 72 79 77 78 78 73 72 68 68 66 55 54 54 56 69 67 61

GFSNE_700_rhum_054.txt.gz
RH
45 46 46 50 41 40 34 27 28 28 26 32 38 43 50 54 55 65 72 81 84 81 97 91 99 96 98 99 98 98 99 100 100 100 98 97 99 100
35 38 38 36 29 24 27 29 30 34 36 36 43 47 52 58 60 66 78 77 86 94 91 92 98 98 97 99 98 98 98 99 100 98 99 99 98 98
32 29 27 25 23 26 29 32 37 38 37 37 49 53 56 57 64 61 72 80 98 98 96 99 98 97 100 96 98 98 97 97 98 98 98 98 98 97
22 23 21 20 25 30 29 34 41 41 39 48 55 64 63 61 68 64 72 76 87 98 97 98 99 100 98 100 98 98 97 96 97 98 99 98 97 99
20 20 18 22 34 39 33 34 46 50 46 48 54 58 48 57 68 56 69 69 75 88 94 96 97 98 97 97 97 99 97 97 97 98 100 98 97 97
17 18 23 30 37 45 45 41 49 50 48 50 55 60 60 59 62 59 61 69 76 84 95 94 95 94 96 98 98 96 97 98 97 99 94 94 87 67
39 44 50 50 48 52 52 49 49 28 21 13 10 10 6 8 14 32 51 51 58 55 68 84 91 97 99 100 99 100 99 100 88 56 31 20 16 14
42 41 14 8 6 10 8 11 14 6 4 4 3 3 3 3 3 4 4 6 8 13 19 35 56 83 85 84 76 57 34 20 16 12 8 5 3 3
11 8 6 6 7 7 7 7 7 6 6 7 8 7 5 4 3 3 3 2 2 3 3 3 5 7 7 9 11 10 8 5 3 3 3 4 4 6
12 12 13 14 15 14 13 12 11 12 14 13 10 7 5 4 3 3 3 3 3 2 2 2 3 3 3 3 3 3 3 4 6 9 12 14 16 18
18 20 22 23 24 22 20 18 19 19 16 12 7 4 4 4 3 3 3 3 3 3 3 3 3 3 3 3 4 8 12 15 18 19 20 21 21 22
26 28 31 32 32 30 24 21 20 16 11 6 4 4 4 4 4 4 4 4 4 4 4 5 7 9 12 15 17 20 23 23 24 24 25 27 28 29
32 33 34 35 34 31 25 21 16 10 6 5 4 4 5 6 6 6 6 6 6 6 8 10 16 21 22 24 30 30 30 31 31 32 32 32 32 33
35 35 35 37 34 28 20 15 10 6 5 5 5 7 8 8 8 8 8 8 9 11 14 20 26 30 31 33 35 41 41 39 38 40 39 39 39 38
37 38 39 36 29 20 14 10 7 6 5 7 9 10 11 12 12 13 14 15 18 23 29 33 36 38 39 41 42 50 52 56 57 55 50 48 47 45
40 41 39 32 22 13 10 8 7 7 8 11 13 14 14 16 18 20 22 24 28 34 35 38 42 46 50 54 54 56 66 62 69 72 72 67 63 62
41 44 42 30 20 11 9 8 8 9 11 14 16 16 17 19 22 26 30 35 38 43 52 60 55 55 57 62 64 72 74 73 77 78 76 69 70 75
45 45 47 37 21 12 10 9 8 10 14 17 19 19 19 20 24 33 36 40 42 46 51 64 77 81 82 79 84 82 78 78 81 79 81 77 71 79
54 50 49 44 26 15 12 11 12 13 16 20 22 21 20 21 26 35 42 49 60 67 74 81 85 84 73 61 63 73 70 83 83 82 82 82 73 75
61 53 44 52 39 22 16 13 14 18 22 24 25 23 22 22 27 35 44 48 54 58 62 72 84 85 80 74 53 67 87 73 76 75 73 70 64 61
60 61 42 51 56 37 22 17 20 24 26 29 28 24 24 24 28 34 41 48 50 54 54 64 83 88 76 70 54 55 64 71 70 65 64 63 59 57
65 68 48 45 61 61 35 21 25 29 31 31 29 26 26 26 29 34 39 41 46 49 51 60 74 81 81 78 60 53 52 58 67 73 74 69 58 41
71 69 64 55 60 86 72 34 29 34 35 33 29 28 28 29 33 35 37 40 42 43 45 46 52 63 64 65 61 51 52 60 68 57 52 74 78 74

GFSNE_700_rhum_057.txt.gz
RH
25 30 38 39 41 41 42 37 25 22 24 25 34 37 39 44 50 52 52 52 53 57 74 80 83 88 100 97 98 98 97 94 97 97 97 99 100 100
31 34 37 40 38 34 26 22 24 26 30 34 36 35 45 50 56 52 53 60 60 66 70 86 91 94 99 100 95 97 97 96 97 98 97 97 98 99
39 36 28 25 24 23 22 25 30 30 35 40 38 40 45 47 38 40 50 54 64 69 71 80 93 100 98 99 97 96 97 97 97 97 97 97 97 96
17 19 20 21 22 21 22 36 37 32 35 45 44 42 47 49 45 49 55 53 60 62 68 80 85 93 95 95 98 97 97 96 97 97 97 97 96 97
15 15 17 18 19 25 31 38 44 44 40 46 40 33 43 40 18 20 45 51 52 58 64 71 86 91 94 98 96 96 97 97 98 98 96 95 95 97
19 22 35 42 48 50 49 50 50 50 50 31 10 5 5 4 4 4 6 9 14 18 22 24 42 72 78 81 83 89 94 99 98 94 94 96 96 98
36 41 48 39 20 13 18 17 26 31 13 6 5 6 6 7 7 7 6 5 4 4 4 5 9 15 24 58 85 89 91 94 96 98 97 98 94 80
26 24 11 7 5 6 7 7 7 7 8 8 9 10 12 12 12 10 6 5 4 4 3 3 3 3 4 6 11 28 45 52 53 42 33 25 19 15
11 9 10 12 13 14 16 16 15 13 14 15 17 18 17 14 8 6 6 4 3 3 3 3 3 2 2 2 2 3 4 5 6 7 6 5 4 3
15 14 16 19 22 24 24 24 24 23 22 22 21 17 10 6 6 5 4 3 3 3 4 3 3 3 3 3 3 2 2 3 3 3 3 4 6 8
20 23 26 28 31 31 31 31 29 26 24 22 17 9 7 6 4 4 4 4 5 5 5 5 5 5 5 5 5 6 6 6 10 13 15 18 19 20
30 32 33 33 33 33 33 32 28 24 20 15 8 7 6 5 4 5 5 5 6 6 6 6 6 7 8 10 14 16 17 19 21 23 24 25 25 25
32 33 35 36 35 35 34 30 24 19 15 10 7 6 5 5 6 7 7 7 8 8 8 9 10 11 14 20 26 26 27 29 30 31 31 31 30 30
34 36 38 39 38 35 30 24 18 15 12 9 7 6 6 7 8 8 9 10 10 11 11 14 17 20 23 28 33 40 44 43 38 38 39 40 39 37
34 38 41 42 40 35 26 18 14 13 11 9 8 8 9 9 10 11 12 13 14 14 17 20 24 28 30 31 34 40 51 58 60 60 54 50 50 50
33 37 45 46 45 41 30 19 13 11 10 9 10 11 12 13 14 14 14 15 17 18 20 24 31 38 43 46 47 51 60 55 63 69 72 73 71 65
34 37 47 50 48 47 35 21 15 12 11 11 12 13 15 17 17 17 17 17 20 27 34 33 31 43 53 55 58 68 72 72 76 75 72 71 72 77
35 38 48 51 52 49 45 29 20 16 15 15 16 17 19 21 20 20 19 19 22 30 39 45 47 52 62 60 58 61 56 62 70 65 62 57 56 64
38 39 46 51 56 47 50 48 33 24 20 19 19 20 23 24 23 22 21 22 26 31 39 46 52 55 50 47 47 58 65 76 73 71 71 68 55 58
40 41 47 52 59 55 46 58 54 39 27 23 23 25 27 28 26 24 25 26 28 33 39 46 54 54 51 51 41 50 84 62 68 58 64 62 53 56
42 42 46 58 63 66 54 53 71 79 51 29 27 29 31 30 27 25 26 29 30 33 35 42 47 46 44 45 42 42 57 80 75 66 55 52 53 53
54 53 70 87 77 80 86 87 88 87 68 40 32 33 34 31 28 26 27 30 32 32 33 36 39 41 42 41 38 38 40 53 65 58 54 63 64 47
87 85 95 93 95 92 88 87 89 92 78 44 36 36 35 33 28 27 29 30 31 32 34 36 40 46 50 54 56 54 56 56 62 66 66 73 69 64

GFSNE_700_rhum_060.txt.gz
RH
13 14 18 22 28 35 60 47 46 43 28 22 27 34 37 36 43 50 51 51 44 45 47 52 53 64 70 82 89 99 82 98 100 99 100 94 97 93
25 33 36 37 40 43 39 33 29 27 25 30 32 42 41 40 45 47 42 37 42 44 53 59 62 71 75 80 87 92 100 98 98 98 94 97 96 95
41 40 37 30 24 24 25 25 24 25 38 36 32 43 47 44 45 45 42 42 46 45 52 54 58 66 75 87 99 100 98 96 96 96 95 95 94 95
29 18 17 21 22 21 22 21 24 30 37 44 43 44 44 43 47 36 11 20 38 46 48 51 50 53 65 74 85 91 92 92 93 96 97 96 95 95
16 15 15 15 15 17 21 31 40 44 48 46 49 44 10 5 5 4 4 5 7 13 18 20 12 12 29 65 76 83 86 92 92 93 90 86 93 95
21 25 27 32 39 44 39 40 36 42 48 44 19 7 5 6 6 6 6 7 7 7 6 5 5 5 7 12 29 62 77 82 87 89 92 95 96 94
36 30 33 35 19 8 5 5 5 5 6 7 7 8 8 10 11 12 13 12 10 7 6 5 5 4 4 3 4 4 8 26 53 76 89 92 93 92
20 19 14 9 8 9 11 13 14 14 13 12 12 13 15 16 17 16 14 10 9 6 6 4 3 3 3 3 2 2 2 2 3 4 11 19 32 40
15 11 12 13 14 16 19 21 22 23 23 22 22 22 22 21 17 12 9 7 6 4 3 3 4 4 4 4 3 3 3 3 2 2 2 3 4 4
16 15 16 19 22 24 27 29 30 30 29 28 26 24 21 16 10 8 7 5 4 4 4 6 6 6 6 6 5 4 4 4 4 3 3 3 3 3
19 21 24 28 30 30 31 32 32 32 30 27 24 20 15 9 8 7 5 4 4 5 6 7 8 8 8 7 6 5 5 6 7 7 8 11 12 13
27 30 30 30 32 35 35 34 34 31 27 23 20 15 11 9 7 6 5 5 6 6 8 10 10 10 9 9 8 8 9 11 13 15 17 19 21 22
32 30 31 34 36 38 37 35 31 27 22 19 17 13 10 8 7 7 7 7 8 8 10 11 11 11 12 13 14 13 16 18 23 26 26 27 28 29
30 31 32 34 38 41 41 37 30 22 17 15 13 12 10 10 10 10 10 10 11 11 12 12 12 13 15 19 21 23 25 28 31 31 32 37 37 36
32 32 31 33 41 45 45 45 39 26 16 13 12 12 12 12 14 13 13 14 13 13 13 14 14 15 18 23 28 31 34 42 46 46 42 40 39 42
32 32 32 32 36 40 45 50 46 33 19 14 13 14 14 16 16 16 17 17 17 16 16 15 16 17 21 28 34 39 44 47 53 56 59 63 59 59
34 34 34 34 36 41 45 51 50 43 28 20 18 19 19 19 19 20 21 20 20 19 18 16 16 17 21 28 31 39 43 52 60 62 64 64 68 73
37 37 38 39 39 43 46 53 52 48 45 36 28 25 25 23 23 23 24 23 22 21 20 19 20 22 25 30 36 41 42 49 53 53 54 50 51 66
38 38 41 42 43 46 50 55 60 52 50 54 53 47 34 27 26 27 27 26 25 23 23 24 26 28 27 29 34 35 43 59 57 53 62 65 51 60
49 47 44 45 46 48 56 75 80 69 63 60 69 78 53 35 30 30 30 29 26 25 26 28 30 31 30 30 28 35 40 40 50 51 53 67 61 57
92 80 70 60 51 59 74 92 91 91 88 89 89 81 62 42 36 34 34 32 28 26 26 30 32 32 32 34 32 35 40 44 44 44 46 49 48 48
96 95 96 93 69 69 90 97 98 94 90 90 91 87 65 45 37 36 36 34 29 27 28 30 32 33 37 43 45 48 54 61 64 62 60 54 45 38
96 97 98 95 93 97 97 98 98 94 92 92 93 86 66 44 38 38 38 35 30 29 29 30 34 45 53 57 55 53 57 58 59 60 63 71 68 64

GFSNE_700_rhum_063.txt.gz
RH
20 17 14 14 16 21 30 41 39 68 90 36 22 25 26 34 40 35 37 42 39 33 37 39 41 48 50 60 62 65 71 88 84 95 90 88 99 99
19 16 18 28 34 37 49 56 48 40 32 26 24 32 30 34 44 40 40 42 42 36 43 40 44 47 49 56 66 71 74 83 88 93 96 100 100 97
24 31 38 40 38 35 29 24 26 26 25 22 29 38 41 37 43 40 45 46 28 32 39 42 45 48 47 46 56 68 80 92 100 100 99 99 98 98
38 39 36 30 20 19 21 19 22 21 22 28 35 43 42 47 15 21 19 6 5 6 8 10 13 17 12 12 29 58 69 74 80 83 84 88 94 94
42 31 19 18 17 17 18 24 35 42 44 45 48 48 46 13 5 5 6 6 7 7 7 7 8 7 6 6 6 15 41 64 75 78 85 91 89 88
23 19 19 23 27 34 37 37 24 9 9 20 22 11 7 6 8 9 10 10 11 12 12 11 9 7 6 5 5 4 5 8 28 58 74 79 81 85
20 25 37 35 36 27 14 7 6 8 9 10 10 10 11 11 12 14 15 16 16 15 12 10 8 7 6 4 3 3 3 3 3 3 4 12 36 62
35 39 31 22 10 8 9 12 14 16 18 19 19 20 20 20 22 22 20 18 15 10 9 8 6 4 3 3 4 4 4 4 4 3 3 3 3 4
31 18 12 10 12 14 17 20 22 24 26 27 27 27 26 25 24 22 18 12 10 10 7 5 4 4 6 7 7 7 7 7 6 5 4 3 3 3
19 15 15 16 18 22 25 27 28 30 29 29 30 29 27 25 22 16 10 9 9 7 5 5 5 6 8 9 10 10 10 9 7 6 5 4 4 4
18 18 20 23 27 30 28 30 33 33 32 31 31 28 24 20 16 11 9 8 7 6 5 5 6 8 11 12 13 13 12 10 8 6 6 6 7 8
21 24 28 31 30 31 33 35 36 34 32 30 28 24 21 18 14 11 9 7 7 7 8 8 9 11 13 14 16 15 13 11 9 9 10 11 13 14
28 32 32 31 32 32 34 39 41 39 35 30 25 20 18 16 12 11 12 12 12 11 12 12 12 13 14 15 16 15 14 13 12 14 17 19 21 22
34 33 31 31 30 32 37 44 43 44 44 38 29 20 17 14 13 13 15 16 16 16 16 16 16 16 16 16 15 15 14 14 15 17 21 25 27 30
34 32 30 30 30 32 35 39 40 46 50 44 33 23 17 15 14 16 19 20 21 21 22 21 20 20 18 17 16 16 16 19 18 21 27 35 38 37
35 33 32 32 32 33 35 37 40 45 51 51 45 36 26 22 22 23 25 27 26 25 23 23 23 22 19 17 16 18 20 19 24 26 29 39 46 50
36 35 35 35 36 38 39 41 44 47 52 55 50 48 46 40 36 34 33 30 28 26 26 25 25 23 20 19 19 22 23 24 28 34 35 37 43 46
37 37 37 38 38 41 44 45 47 51 55 64 62 52 50 54 55 47 38 32 29 28 28 28 27 24 21 22 24 26 26 28 32 32 33 34 36 42
36 37 38 40 39 42 46 47 49 55 64 82 77 72 67 66 70 71 52 39 33 32 31 30 28 24 22 21 24 26 29 33 32 32 33 35 34 38
55 81 90 75 76 66 62 58 52 60 75 92 91 90 86 86 86 74 60 46 38 35 34 33 29 26 24 24 24 28 32 34 37 37 37 38 37 37
96 95 95 95 93 92 87 85 65 63 78 96 95 92 88 88 89 85 68 50 40 37 37 35 31 28 26 27 27 30 38 51 56 54 53 55 56 54
97 96 98 97 97 97 96 95 93 86 96 97 95 93 92 92 92 84 70 50 40 39 39 38 32 30 29 30 33 40 44 55 62 60 55 52 50 45
97 97 97 96 97 97 96 96 96 96 96 96 95 96 95 94 88 78 54 46 44 43 42 38 32 30 32 41 50 50 49 51 53 54 59 67 63 60

GFSNE_700_rhum_069.txt.gz
RH
21 20 19 20 23 27 24 20 20 25 46 48 95 95 63 25 26 22 31 32 28 36 38 36 36 36 36 36 34 42 47 50 52 58 79 82 84 92
22 23 24 29 30 27 23 22 32 40 45 67 85 73 33 23 22 26 32 39 36 36 36 37 33 32 32 32 37 38 36 38 44 57 65 70 73 81
27 31 32 32 32 30 32 37 44 43 44 57 36 26 22 20 26 32 37 40 34 35 14 6 6 8 13 12 17 14 8 8 16 27 52 62 67 70
34 36 39 36 34 39 42 43 38 25 24 22 21 22 33 41 44 41 40 36 6 5 6 7 7 7 7 7 8 9 9 8 7 8 15 28 46 63
39 40 43 41 41 43 44 32 21 21 20 22 37 38 37 42 41 31 14 6 7 8 10 11 12 12 12 12 12 11 9 7 7 6 6 10 25 44
44 46 48 44 45 44 28 21 22 28 36 39 12 7 7 11 8 9 10 11 12 14 16 17 17 17 17 14 12 10 8 7 5 4 3 3 4 5
53 56 54 52 46 28 22 34 40 38 15 6 9 13 15 16 18 19 20 22 22 23 23 22 19 16 13 11 10 7 6 4 4 5 5 5 4 5
62 61 58 47 30 28 43 33 14 7 10 14 17 21 23 25 27 27 27 26 26 24 21 20 14 12 12 9 7 5 5 6 8 8 9 9 9 9
68 65 50 34 41 47 18 8 10 15 18 22 26 29 28 29 30 30 29 27 25 21 18 14 13 12 9 7 5 5 7 9 11 13 14 15 15 15
73 55 41 56 43 14 10 14 18 23 28 30 31 34 33 32 31 29 26 24 21 18 16 14 12 11 8 7 6 7 9 12 14 17 20 21 22 21
56 48 54 21 10 12 17 22 28 31 32 35 36 36 34 31 28 26 24 22 21 18 15 14 13 13 12 11 12 14 16 18 20 23 24 25 25 24
63 46 19 14 16 22 28 32 32 34 35 37 40 41 40 38 35 30 25 22 19 19 16 17 17 19 20 21 22 24 24 25 26 27 28 28 27 25
35 20 17 21 27 33 35 33 34 34 36 39 40 38 43 46 45 39 30 23 18 18 17 18 21 25 28 28 30 29 28 30 31 31 30 29 28 25
22 21 24 30 36 36 33 32 32 33 34 36 37 39 45 50 52 49 40 32 26 22 22 23 26 31 33 31 32 31 32 34 34 34 33 30 27 24
23 26 31 36 38 35 33 33 32 32 34 36 39 42 46 52 55 55 52 48 43 40 36 33 34 36 39 35 34 31 32 34 37 36 30 27 25 24
27 30 35 38 38 37 35 35 34 35 36 39 43 47 53 56 59 67 68 61 55 52 50 51 50 51 50 45 39 32 33 36 35 32 30 27 26 22
30 33 36 38 38 38 37 37 37 38 39 42 65 80 50 56 61 76 81 80 72 67 67 66 66 66 59 50 41 36 37 37 36 34 32 28 24 24
31 34 35 36 38 39 43 67 65 54 65 91 92 60 49 57 64 74 86 88 88 85 81 82 83 72 60 52 48 43 39 38 36 34 31 30 27 26
31 33 49 67 80 91 95 95 90 94 96 96 96 79 64 66 68 72 85 89 90 86 86 87 86 85 78 64 52 43 41 40 38 35 32 29 29 29
60 72 57 45 59 93 95 88 96 97 97 96 95 95 88 84 81 80 86 91 92 92 90 91 89 82 76 64 51 46 47 50 43 37 32 30 32 34
93 97 97 97 96 97 97 97 97 96 96 96 96 96 96 96 94 95 95 94 94 94 94 95 89 78 68 61 62 56 51 45 40 35 34 36 39 40
97 97 97 97 96 96 98 97 94 96 96 96 96 96 96 95 97 96 95 95 96 96 94 95 93 81 74 71 68 65 57 45 37 38 45 47 46 38
98 95 95 96 97 97 98 97 94 98 97 93 97 98 98 97 96 96 96 95 95 95 96 96 95 92 86 79 74 68 60 43 42 50 54 58 52 47

GFSNE_700_rhum_072.txt.gz
RH
30 26 24 23 23 24 25 27 29 25 22 25 38 57 72 86 94 88 27 24 30 36 35 35 38 35 35 37 36 35 34 41 44 48 49 72 82 84
28 26 24 24 25 28 31 32 30 26 27 33 45 49 71 90 45 49 27 24 31 38 37 40 39 27 29 34 33 33 38 39 41 43 45 60 69 78
27 29 30 30 34 37 38 36 34 35 41 40 60 83 88 70 28 28 29 34 39 39 31 14 6 6 7 10 14 15 25 17 13 14 22 35 47 62
36 38 39 38 41 42 42 40 43 47 46 44 30 32 31 28 31 44 44 42 43 20 5 6 8 9 9 8 8 8 9 9 9 8 8 9 18 36
41 40 42 44 46 49 48 49 53 54 43 28 27 26 28 42 38 42 39 28 13 6 8 9 11 12 12 13 13 13 13 13 12 9 8 7 7 7
40 38 41 45 50 53 51 54 54 40 29 27 26 36 36 16 12 9 8 9 10 12 14 16 18 19 19 18 17 15 13 12 10 8 6 6 4 3
41 40 44 51 53 55 53 52 36 27 29 41 46 18 7 8 13 15 18 19 21 23 24 24 24 22 20 16 13 12 11 8 6 4 4 4 5 6
41 45 53 62 63 59 52 36 31 52 51 23 6 8 14 18 22 25 26 27 27 26 26 24 22 19 15 13 13 11 9 6 5 6 8 9 9 10
42 53 66 69 69 56 38 41 48 15 7 9 14 20 25 29 30 30 30 30 29 27 25 22 19 15 13 12 10 8 6 6 6 8 10 12 14 15
58 71 78 76 60 46 57 34 8 10 15 22 26 30 31 34 34 33 31 29 26 24 22 20 18 16 14 12 10 8 7 7 9 11 13 16 18 21
76 84 78 61 54 62 25 9 14 20 26 32 32 35 36 36 34 32 30 26 22 21 20 19 16 15 15 14 13 12 12 14 15 18 20 23 24 26
76 67 58 61 36 11 11 19 25 31 34 35 37 38 40 41 40 40 37 32 26 22 20 18 16 17 18 19 21 23 24 25 26 27 28 29 30 30
60 65 54 25 15 17 24 31 35 35 34 36 38 41 41 39 44 47 46 42 35 28 24 19 18 18 20 22 26 30 31 32 33 33 33 34 35 35
65 37 61 47 23 28 35 37 36 34 34 35 36 39 39 40 44 50 52 52 49 44 38 32 25 26 25 27 31 35 38 38 38 37 37 38 38 37
44 25 21 24 29 36 38 37 35 34 33 34 36 38 41 42 46 52 56 58 59 59 55 50 47 44 41 38 40 42 43 46 43 38 40 40 40 38
25 24 25 29 34 38 39 38 36 35 35 36 37 39 44 48 53 75 63 62 72 77 73 69 64 59 56 56 56 53 52 47 43 40 42 41 41 40
26 27 30 32 35 38 39 39 39 39 39 39 40 66 67 68 95 76 56 60 71 82 82 81 81 80 79 78 77 70 62 51 44 43 43 43 42 41
27 57 43 33 35 37 38 39 39 44 57 86 95 96 96 96 95 93 62 60 68 75 86 85 85 83 80 78 75 71 67 60 52 47 48 50 47 40
50 31 30 32 33 37 46 61 78 90 97 97 97 98 95 98 96 95 92 84 80 88 92 92 91 88 85 84 85 82 83 63 55 49 52 56 56 46
31 33 38 60 84 89 85 62 83 97 98 99 99 97 96 96 97 96 95 95 95 95 96 94 95 92 91 91 88 94 88 60 57 58 58 58 57 49
82 85 94 90 84 95 97 98 97 96 96 98 98 98 98 96 97 96 97 97 97 98 96 95 93 93 93 91 87 86 78 72 69 68 64 62 58 45
94 97 98 98 97 97 97 97 97 97 97 97 97 95 95 97 99 99 97 96 96 97 97 96 96 95 95 94 92 90 88 84 77 72 67 59 50 47
97 96 97 98 97 94 97 98 99 99 98 98 98 96 95 96 97 97 97 98 96 96 96 96 96 95 95 93 93 92 91 86 79 70 53 47 50 51

GFSNE_700_rhum_075.txt.gz
RH
63 60 54 35 30 28 28 31 32 28 30 31 32 33 49 76 66 98 91 61 45 28 26 32 36 35 35 33 34 38 38 36 33 36 36 35 64 77
64 61 44 32 29 30 33 36 36 38 37 34 37 38 50 65 81 77 99 39 29 25 31 37 37 39 28 29 35 35 32 33 40 45 50 48 71 79
65 50 36 35 38 39 40 41 41 42 41 37 39 51 57 98 88 65 76 33 33 39 40 36 27 7 6 7 12 19 18 35 41 28 24 35 42 51
56 38 42 42 40 39 40 44 46 49 48 48 52 63 72 50 60 40 35 42 50 46 42 13 5 7 8 9 9 8 8 9 10 10 8 8 12 20
40 43 44 45 44 41 42 46 50 54 54 55 57 57 44 36 35 35 45 51 47 41 20 6 7 9 11 12 13 13 12 12 12 12 11 10 8 8
50 47 45 43 43 43 45 53 54 58 61 62 56 40 33 30 38 43 39 15 9 8 9 11 13 16 18 19 19 19 18 16 15 13 11 10 8 7
49 48 46 44 44 44 49 58 61 59 61 52 38 34 35 47 38 9 9 12 15 18 20 22 23 24 24 23 21 19 15 13 12 10 9 7 6 4
53 48 45 43 45 50 61 67 65 58 46 39 44 56 52 9 8 14 19 24 26 27 26 26 26 25 23 21 18 15 13 12 10 8 6 5 5 6
49 44 38 43 53 65 74 73 63 46 46 54 34 9 8 14 20 26 29 30 31 30 29 28 26 24 20 17 15 14 13 11 8 6 6 7 8 10
35 31 40 56 72 81 78 64 52 61 26 8 12 18 23 29 31 33 34 34 32 30 27 25 23 21 18 16 15 14 12 10 8 7 7 9 11 13
44 47 59 78 84 77 62 68 43 11 11 19 29 31 33 35 37 37 34 32 30 28 25 22 22 19 18 16 15 15 14 12 12 12 12 14 16 18
59 61 75 77 68 65 52 18 12 18 28 33 35 34 36 38 38 40 40 38 38 36 31 26 22 18 17 17 18 20 21 22 23 24 24 25 27 28
58 62 68 66 63 23 14 17 29 53 55 35 37 38 39 42 43 41 41 45 46 42 37 31 26 22 20 19 20 22 24 28 31 33 34 36 35 35
62 60 64 56 26 61 49 49 44 37 38 37 36 37 40 41 41 41 44 49 51 51 47 46 49 42 34 30 28 29 30 32 36 40 42 45 42 41
66 65 58 28 62 80 43 34 39 38 37 36 35 35 36 38 42 44 46 50 54 58 78 83 63 60 56 50 49 49 49 48 48 49 50 50 47 46
76 70 37 22 23 26 32 38 40 40 38 38 37 37 38 40 42 50 80 93 95 95 85 78 79 79 76 72 69 64 61 60 58 56 57 55 50 46
78 46 24 24 29 30 34 38 40 40 41 46 48 50 52 47 66 92 96 96 96 89 69 71 78 84 86 86 85 84 81 79 76 72 66 54 48 48
45 26 25 26 31 32 35 65 42 39 47 56 58 68 86 95 98 95 95 96 98 96 93 90 88 90 94 95 94 92 85 80 75 71 67 64 54 49
28 26 28 45 67 56 79 37 37 47 69 92 96 98 97 95 95 97 96 96 96 95 95 95 93 94 92 90 96 95 95 95 86 83 83 79 65 51
60 84 77 55 31 30 34 52 81 94 94 89 95 96 96 97 98 97 95 95 96 94 94 92 93 94 93 93 93 97 94 95 92 91 92 76 67 64
32 27 30 37 46 66 91 96 94 97 96 97 97 96 97 97 96 96 96 96 97 96 96 96 94 91 93 92 95 96 95 94 93 94 92 81 79 75
62 67 89 94 95 96 97 98 99 98 98 98 98 97 98 96 97 97 96 96 96 96 98 97 96 94 92 90 94 96 96 95 95 94 94 88 81 75
95 96 96 98 98 98 98 98 98 99 99 98 97 96 96 95 96 97 97 96 95 96 96 96 96 94 93 93 95 96 96 95 93 98 97 91 84 78

GFSNE_700_rhum_081.txt.gz
RH
84 83 84 84 83 86 88 71 57 39 30 30 33 37 39 40 40 40 48 65 70 100 94 100 98 57 28 29 34 37 35 37 36 37 35 32 33 35
97 87 85 84 83 83 78 65 50 38 35 36 37 38 42 46 46 44 47 56 78 93 100 100 100 62 29 31 39 40 36 39 36 38 37 32 30 32
90 88 86 79 77 76 65 54 41 41 39 38 38 38 42 45 45 49 52 94 98 100 99 99 95 74 42 41 35 8 27 38 39 37 33 35 36 36
82 69 70 67 66 56 51 40 40 43 41 39 38 39 40 46 51 52 60 80 92 78 100 92 48 56 50 38 8 6 8 20 26 32 35 42 46 45
61 57 56 51 50 43 38 39 42 44 44 42 41 43 49 56 58 58 64 76 97 50 49 48 58 57 52 8 7 9 10 10 10 12 27 40 31 36
47 45 45 43 39 41 46 50 50 47 45 43 43 45 54 61 63 65 65 53 46 44 51 42 23 20 8 7 10 12 13 14 14 13 11 11 11 13
49 47 43 42 41 42 41 45 46 43 43 42 44 51 61 67 66 63 54 45 42 51 47 18 10 11 14 16 18 20 22 22 21 19 17 14 13 12
47 43 40 38 40 42 41 41 42 40 39 42 51 61 70 66 55 42 41 51 57 21 9 13 18 22 24 25 26 25 24 22 20 17 15 13 11 10
44 44 44 47 46 43 45 39 37 37 45 59 70 73 64 54 58 59 49 18 10 14 22 28 29 29 28 28 26 25 21 18 15 13 12 12 10 8
47 50 53 50 48 44 45 50 56 58 66 76 71 61 53 33 15 10 15 23 26 31 33 33 32 31 28 26 23 20 17 14 13 12 12 11 9 7
56 58 57 53 48 51 54 59 61 69 72 66 57 26 12 18 26 32 34 34 36 36 33 28 27 25 23 20 18 17 16 14 14 13 12 11 9 8
64 65 64 62 57 51 54 51 64 67 60 27 16 27 43 59 50 39 43 38 36 47 54 36 32 27 24 18 17 17 16 16 17 18 18 17 15 14
66 72 71 67 60 58 56 56 61 47 31 40 42 43 39 45 43 55 55 42 44 64 49 43 42 42 31 22 19 29 55 63 45 23 22 23 24 25
75 77 76 72 67 74 62 59 47 21 24 31 57 57 54 56 53 40 43 43 43 43 44 48 51 78 88 56 70 96 82 39 32 31 30 29 29 30
83 81 79 76 76 86 66 58 25 66 48 48 48 49 50 41 37 42 60 58 42 44 48 56 81 81 88 94 96 92 67 59 58 56 55 52 50 47
92 83 80 80 82 92 69 43 51 71 41 42 42 39 38 38 40 46 48 39 43 50 66 75 81 88 95 95 93 94 89 82 80 78 78 77 75 73
90 82 86 89 92 91 70 39 35 51 38 35 40 41 41 46 52 55 55 58 59 62 77 91 92 93 94 92 93 93 93 96 94 92 90 92 90 85
86 93 93 100 100 93 78 34 24 27 32 37 41 64 71 50 57 76 86 89 94 94 93 92 93 93 94 95 92 95 94 93 89 86 85 86 91 91
73 85 97 98 97 95 88 25 26 32 36 38 68 82 44 41 57 84 97 97 97 96 95 93 94 94 93 94 93 93 95 94 91 89 86 83 85 89
84 94 99 97 97 88 55 24 26 44 52 54 54 44 54 71 90 96 95 95 96 96 95 94 93 88 87 88 90 92 94 89 88 86 82 80 83 88
92 98 97 98 90 44 32 26 29 42 38 40 53 69 84 95 96 96 96 96 95 97 95 94 89 88 88 87 87 90 90 86 85 85 84 84 86 88
94 97 97 97 89 33 37 60 67 86 93 92 83 94 96 96 99 98 98 97 96 96 94 93 91 88 88 89 91 90 90 90 87 86 86 85 84 81
96 96 96 96 96 73 50 49 94 87 70 91 96 96 96 98 100 99 99 98 97 95 94 95 94 91 89 90 90 91 90 90 90 93 94 89 84 81

GFSNE_700_rhum_084.txt.gz
RH
99 97 90 88 86 84 82 80 75 74 70 54 39 35 35 37 38 39 42 43 50 54 64 66 100 100 100 92 44 24 30 36 35 36 36 37 36 33
90 90 91 91 84 77 74 74 67 70 56 42 37 34 35 36 38 40 44 45 48 50 61 86 97 98 100 96 85 32 35 41 39 41 41 42 37 34
98 99 95 92 74 66 68 62 62 49 43 35 34 37 39 38 40 44 47 48 50 55 85 98 100 100 98 97 84 41 45 16 33 42 41 41 40 33
94 90 92 84 64 54 49 46 44 41 37 37 37 39 38 40 42 43 48 52 58 62 73 91 74 82 68 48 53 48 17 9 35 44 43 42 38 38
89 76 84 67 49 44 45 44 39 39 40 41 41 42 42 41 43 45 52 59 62 72 72 70 57 47 54 63 53 26 7 8 11 26 32 41 44 49
84 83 66 44 40 41 41 41 44 46 45 45 44 41 42 42 44 51 62 67 65 66 57 49 44 55 48 59 38 8 9 10 11 11 12 19 44 49
85 59 48 49 45 42 39 40 41 41 41 41 40 40 39 41 48 62 67 67 63 53 47 44 54 26 11 9 8 10 12 15 16 16 14 13 12 17
53 56 54 46 42 40 43 44 42 40 40 41 37 34 38 52 67 69 64 52 46 45 48 51 24 12 12 16 19 21 23 24 24 23 21 18 16 14
53 55 49 46 44 43 44 44 42 40 42 46 53 53 60 69 69 59 54 60 62 45 18 11 15 21 25 27 27 27 26 25 23 20 18 15 13 12
59 52 50 46 47 51 50 46 44 46 48 53 58 63 68 63 56 44 24 12 13 19 26 29 29 31 32 31 29 26 24 22 18 15 13 11 10 10
55 53 51 49 52 55 55 53 51 48 50 51 63 68 60 40 16 13 19 28 35 35 35 35 33 32 28 26 23 21 19 16 14 13 13 12 11 10
62 59 57 56 58 63 62 59 52 52 52 57 62 51 22 16 35 42 38 40 41 39 37 48 53 36 31 28 26 20 17 15 14 15 15 15 14 13
66 64 65 63 69 70 67 63 58 60 55 58 34 26 41 42 43 50 45 54 55 48 55 69 50 42 40 50 56 27 20 21 24 26 25 21 20 21
72 72 70 72 76 75 73 66 71 65 56 44 37 38 48 48 46 50 49 47 44 43 49 45 45 46 55 78 83 77 41 84 92 94 92 86 62 38
84 80 83 82 80 80 77 72 83 69 50 24 27 38 58 59 59 49 39 47 62 55 53 45 48 58 65 75 78 83 92 92 90 72 47 44 46 45
87 86 90 88 86 88 81 81 90 71 31 51 55 46 41 39 38 38 38 39 41 41 43 47 55 65 73 82 86 89 92 92 92 88 80 75 73 71
93 89 89 90 96 94 91 90 92 70 30 71 46 40 43 41 39 41 51 53 53 53 56 60 64 80 91 91 92 91 90 89 88 89 90 90 89 87
96 89 94 99 90 92 98 100 98 66 30 59 57 37 39 41 47 52 47 59 70 85 89 91 95 92 92 90 92 93 92 91 88 85 83 83 85 84
95 95 87 85 93 89 98 100 96 46 58 26 31 37 40 49 77 67 52 54 69 92 92 93 94 92 89 89 87 87 90 89 85 83 82 82 81 83
82 86 85 83 89 96 99 100 93 84 53 28 34 37 48 75 71 51 70 81 93 95 94 94 91 88 87 88 88 89 89 84 82 82 82 81 81 82
72 80 91 95 98 98 97 99 96 94 47 50 39 41 55 50 55 72 91 95 96 96 94 93 89 88 88 86 85 87 86 85 83 82 80 80 80 82
83 94 95 100 98 94 95 98 90 92 34 28 36 37 38 54 88 94 96 96 95 95 94 92 91 89 89 88 88 85 84 85 85 82 79 79 79 79
95 97 95 99 96 92 95 96 90 80 56 32 41 69 93 95 95 98 97 95 96 94 95 95 94 91 91 91 89 86 83 81 82 81 80 79 77 77

GFSNE_700_rhum_087.txt.gz
RH
86 86 95 98 98 94 89 83 80 77 74 65 55 53 41 36 35 34 36 37 37 38 41 51 62 55 74 99 100 99 87 46 30 33 34 32 33 32
100 98 94 95 91 92 86 84 76 73 65 53 44 40 37 34 36 36 38 39 39 41 43 51 54 61 91 92 98 100 90 75 34 37 40 34 36 34
83 81 86 91 97 91 87 78 59 56 46 40 35 34 34 35 37 37 37 38 38 42 44 48 53 89 91 100 99 96 77 56 41 39 26 40 41 40
89 90 90 88 85 84 80 66 48 44 39 36 31 33 36 39 41 41 42 44 44 46 50 54 60 63 68 75 57 54 47 54 43 10 37 43 45 43
91 91 87 86 88 82 82 46 43 44 38 35 35 38 43 45 42 38 40 41 43 46 56 61 64 60 62 49 45 57 58 48 8 11 34 44 47 45
90 90 90 87 86 89 59 45 40 37 37 37 38 38 40 40 39 39 38 42 51 60 64 64 65 53 47 48 52 60 53 10 8 10 13 28 43 44
91 92 92 91 90 61 47 44 40 37 38 41 42 41 42 40 38 36 38 44 58 63 66 62 52 41 45 45 13 13 10 9 10 12 12 12 16 38
92 92 89 82 60 48 46 43 40 41 44 43 41 40 43 47 51 51 50 60 63 61 54 43 41 48 49 17 12 14 15 17 18 19 20 18 16 13
66 72 68 57 52 53 45 44 42 47 46 44 43 46 44 51 53 60 62 62 55 56 55 53 46 16 12 18 24 26 26 26 25 25 24 23 21 19
59 60 59 62 59 50 47 46 47 49 48 48 45 41 47 52 64 66 60 52 37 24 17 14 18 25 29 33 33 34 30 28 27 24 21 18 16 14
65 72 73 64 56 53 52 51 55 55 55 54 50 46 50 60 64 55 31 16 13 21 30 33 34 34 33 33 32 28 24 22 21 18 16 14 13 11
88 86 72 64 59 57 54 55 58 61 60 56 51 52 56 58 45 21 18 28 33 38 40 40 37 40 37 34 32 28 26 21 18 17 16 15 14 13
88 82 74 69 66 64 60 61 64 67 65 59 61 54 53 33 24 41 53 49 44 55 52 46 60 63 46 43 37 68 78 61 26 19 42 41 26 20
93 87 81 79 74 69 66 66 72 73 70 64 66 55 41 43 46 47 42 45 48 51 49 43 54 51 49 47 64 70 68 76 52 42 75 73 75 69
99 92 93 86 80 75 73 78 80 80 76 69 72 51 36 38 53 53 53 54 50 45 51 48 55 53 46 57 64 66 67 74 80 88 91 93 70 63
98 96 94 96 90 83 82 85 88 89 80 77 73 36 34 34 56 58 53 45 39 44 44 41 43 46 51 57 59 66 79 84 86 90 92 90 83 71
100 98 97 94 95 89 91 97 100 96 87 86 80 32 59 47 44 40 39 38 38 46 55 55 53 55 59 65 78 84 86 87 87 87 86 86 89 90
92 83 89 93 94 100 99 100 100 100 100 98 84 32 62 41 42 43 40 40 47 52 57 66 70 85 86 89 88 87 86 86 86 86 85 86 87 86
88 87 85 89 95 99 100 99 100 100 100 96 77 35 70 55 38 40 43 55 64 59 59 58 84 87 86 86 86 86 86 83 81 80 80 79 78 80
78 86 86 91 98 97 98 97 98 100 99 98 67 25 35 36 38 42 58 72 65 49 54 81 90 89 87 85 82 89 85 83 80 78 76 75 74 73
88 91 96 97 97 99 92 86 92 100 97 97 43 76 38 35 39 50 70 69 60 65 87 92 92 89 86 84 86 87 86 85 80 77 75 73 74 72
95 91 97 98 95 96 89 96 100 98 97 95 79 90 35 34 39 57 53 52 67 91 93 93 93 88 87 86 86 85 84 85 86 78 73 71 69 70
97 96 96 97 100 99 95 100 100 97 98 95 96 60 78 82 52 41 40 70 95 95 96 94 91 90 89 89 89 88 85 81 79 78 73 68 66 68

GFSNE_700_rhum_090.txt.gz
RH
95 90 84 89 94 97 99 99 93 84 83 78 74 67 54 41 32 32 31 29 31 33 34 34 35 39 40 43 54 54 59 63 69 86 36 30 38 29
90 87 90 93 99 99 100 99 92 86 77 69 61 50 41 36 32 31 32 34 35 35 35 36 36 39 42 44 42 57 65 71 62 75 50 29 38 35
91 90 99 93 90 94 93 93 93 87 75 59 48 40 35 33 32 32 33 37 38 38 38 38 38 42 48 46 53 57 57 43 60 69 41 40 37 36
87 87 84 85 87 97 100 89 82 76 63 44 40 42 35 33 34 38 41 42 38 36 38 42 42 42 48 50 56 60 51 40 42 50 48 17 29 40
92 89 91 93 95 92 88 85 76 76 51 40 35 35 37 35 36 36 38 39 40 40 36 38 40 44 53 56 53 45 38 54 57 53 12 35 50 48
94 96 97 97 99 92 89 87 89 82 46 41 37 34 34 37 39 38 38 38 37 36 38 44 49 56 62 59 47 43 47 60 52 12 10 26 40 45
87 92 97 100 99 97 95 94 88 55 46 41 37 36 42 42 39 39 39 41 45 43 46 52 58 56 52 46 40 42 15 23 11 9 11 12 18 28
64 78 90 93 99 98 93 93 66 51 46 40 40 44 43 41 41 42 41 46 46 54 55 57 53 47 41 42 47 16 11 12 13 14 15 16 15 13
49 59 78 89 96 100 91 69 56 52 44 44 47 48 46 44 43 40 43 49 56 59 55 51 52 51 48 28 14 17 24 25 25 25 25 24 23 22
51 57 70 89 88 79 70 61 57 49 47 48 51 52 52 49 46 41 41 51 58 54 42 32 22 15 15 19 29 34 33 32 29 28 30 27 24 22
59 59 61 69 71 68 68 65 55 53 51 55 57 56 55 52 46 44 52 55 48 24 14 16 25 31 33 33 33 33 32 28 30 25 24 22 19 17
63 63 64 72 76 73 74 61 58 60 59 58 61 58 55 53 53 52 51 37 19 20 26 38 40 39 36 36 37 34 27 27 26 20 20 19 16 14
81 79 79 85 85 80 70 65 64 62 63 65 65 61 59 60 53 45 29 27 35 40 45 48 44 46 60 56 47 40 56 70 72 48 22 17 20 26
99 99 99 99 95 83 73 71 69 67 64 71 71 69 67 65 53 33 40 42 48 48 53 54 54 50 60 54 45 51 66 68 67 72 56 29 55 76
99 100 99 98 97 91 80 77 74 72 71 76 79 78 72 71 52 38 45 46 44 48 50 48 44 45 52 51 47 58 61 63 62 63 71 76 65 76
98 98 98 98 100 99 87 81 79 79 80 85 86 86 79 76 47 33 50 56 58 56 46 50 57 51 46 48 48 52 56 59 68 79 83 86 89 90
98 98 100 99 100 96 90 86 88 84 85 89 92 95 84 80 36 30 44 59 51 44 41 41 43 52 54 55 58 63 71 81 84 84 84 86 86 86
99 98 98 100 93 100 100 92 88 89 91 94 96 97 95 88 45 49 46 43 40 39 39 47 55 60 64 63 81 86 87 85 82 81 82 86 87 86
97 100 100 100 93 94 96 93 100 100 100 98 92 96 97 94 49 53 42 42 42 41 43 48 52 62 59 71 88 88 85 81 78 78 76 77 81 80
96 94 98 96 100 93 96 100 100 98 100 100 99 100 97 97 49 58 44 41 42 44 62 66 63 54 56 89 92 90 82 79 79 77 76 74 75 73
96 93 97 96 98 99 96 98 99 98 97 100 100 100 99 99 72 59 74 42 44 61 87 76 56 68 90 94 93 89 86 84 81 78 75 74 72 70
96 97 95 99 98 98 97 96 98 97 95 93 95 100 100 98 55 52 59 42 48 68 80 61 74 93 95 96 94 90 88 87 83 78 77 75 72 68
96 96 98 98 97 97 96 96 97 94 88 91 97 98 98 89 87 94 47 41 54 74 68 56 95 96 97 96 95 92 90 87 88 88 81 73 68 65

GFSNE_700_rhum_093.txt.gz
RH
100 100 95 94 100 97 98 97 81 94 95 94 81 76 74 67 60 42 34 31 29 30 31 31 31 31 33 33 32 35 38 37 38 39 43 50 56 24
100 99 99 99 96 91 85 93 95 99 97 97 84 74 64 53 38 32 32 31 32 31 31 34 33 35 36 37 38 37 38 40 43 42 39 49 58 29
99 100 99 98 99 100 98 99 100 100 100 97 86 75 57 39 34 32 31 31 35 37 35 34 35 35 36 38 39 41 42 46 54 40 38 47 48 29
99 99 98 100 94 100 100 99 97 99 100 94 85 75 49 38 36 32 35 35 33 35 36 36 35 35 36 38 40 46 48 46 44 32 34 38 39 35
81 91 99 97 99 89 90 94 99 100 100 94 84 75 47 39 37 35 34 38 37 35 34 36 36 36 36 38 42 55 55 46 34 45 56 49 27 19
68 80 95 94 89 86 91 98 99 98 97 90 83 73 45 38 36 35 38 37 35 35 36 41 41 37 40 47 53 57 49 37 38 56 39 13 10 36
67 74 90 96 94 94 96 97 100 100 100 92 84 54 42 39 37 38 40 39 38 40 41 42 46 50 53 52 51 44 37 37 30 31 10 10 11 14
47 70 83 98 99 100 100 98 100 100 99 94 84 48 42 40 40 43 44 43 40 38 44 48 49 53 53 50 43 37 44 13 10 10 10 12 13 13
38 40 56 75 90 99 96 100 95 100 97 89 62 48 44 44 47 47 48 46 44 41 43 49 54 51 51 50 49 41 17 16 21 22 21 20 20 20
41 44 50 54 82 93 100 100 98 99 96 72 57 51 50 49 52 52 49 47 44 44 52 54 40 30 25 23 15 15 29 34 33 31 28 31 30 26
48 49 59 93 100 100 100 99 100 87 72 66 57 54 54 55 56 54 51 48 45 50 49 38 21 16 22 27 29 33 36 36 32 30 27 26 26 24
57 64 69 72 73 73 83 86 85 82 78 67 59 57 58 61 58 54 53 52 51 48 33 23 22 32 36 36 35 35 34 31 24 27 23 24 27 20
65 75 80 84 84 86 86 87 91 86 76 65 63 63 63 66 62 58 55 53 46 34 28 30 34 41 42 44 47 45 40 34 55 59 54 33 20 16
71 92 100 100 99 100 100 100 97 86 73 67 68 68 70 71 69 63 60 50 38 42 44 47 53 54 52 61 62 54 42 60 68 66 64 65 42 24
100 100 100 99 98 98 100 100 96 84 79 78 78 76 77 77 73 69 65 43 44 44 44 48 52 53 49 52 55 49 49 58 65 64 60 58 60 64
100 99 97 87 100 98 97 100 93 93 90 88 86 82 81 82 82 74 69 44 40 47 46 51 52 48 45 48 54 51 50 55 55 55 61 70 77 78
99 96 94 97 98 97 98 99 98 98 93 96 93 90 89 87 85 81 72 52 37 54 57 58 50 51 53 46 45 46 50 55 64 73 83 82 82 82
96 79 97 100 100 98 98 98 98 98 98 97 97 99 95 92 90 90 80 55 30 51 59 48 43 42 44 52 59 65 68 84 87 86 85 82 82 84
95 96 79 98 98 98 99 99 100 93 99 98 98 97 98 100 96 89 93 79 41 46 46 40 39 41 51 54 62 65 72 89 89 85 81 80 78 77
53 94 93 96 98 96 97 98 98 97 97 97 97 98 96 98 100 99 98 95 46 46 42 42 41 44 49 57 76 66 78 90 88 83 79 79 80 77
21 63 93 94 85 99 97 97 98 98 98 96 97 95 97 97 98 98 98 87 46 44 43 46 44 52 71 87 88 87 90 94 90 84 81 80 80 82
17 29 70 95 93 96 97 96 96 96 97 99 98 97 96 96 97 97 97 86 55 54 55 46 51 73 93 85 94 96 95 96 92 86 84 81 79 77
12 24 83 81 96 94 96 96 94 96 98 98 97 96 97 96 96 96 97 91 65 79 90 59 55 86 82 90 95 96 97 97 95 89 87 83 81 79

GFSNE_700_rhum_096.txt.gz
RH
97 96 98 91 89 85 92 99 98 84 100 100 98 97 87 88 81 75 70 55 35 29 26 26 29 31 30 29 31 31 30 32 34 34 37 37 37 40
98 99 89 99 100 100 100 99 100 100 100 98 98 97 92 84 75 68 56 41 34 31 28 29 33 30 29 30 31 32 34 34 33 38 38 40 38 34
100 99 98 99 100 99 98 92 98 99 99 97 99 98 89 84 78 63 45 38 34 33 32 32 32 33 32 33 32 34 34 36 38 43 46 46 36 33
99 100 98 99 100 100 98 98 100 97 86 100 100 98 96 86 78 60 41 37 35 35 34 36 35 31 30 32 33 34 35 37 39 45 43 34 30 35
91 86 91 100 100 98 100 100 100 99 100 100 99 100 95 84 75 61 40 36 36 35 37 38 34 31 30 33 35 35 38 41 47 46 35 36 43 47
68 76 80 77 97 98 100 97 100 100 95 95 98 99 97 86 78 62 40 38 35 39 38 36 33 33 33 34 40 40 44 46 46 36 37 49 42 24
39 49 58 65 71 89 92 100 98 89 90 93 95 84 87 89 85 63 46 38 38 42 39 37 36 34 33 37 40 45 48 45 36 32 39 35 14 10
35 37 42 54 66 72 93 100 95 92 95 95 91 93 98 95 85 49 43 42 42 42 42 41 38 34 38 44 46 49 47 39 36 19 13 10 10 12
39 37 37 42 60 69 81 98 92 96 100 99 100 99 100 98 78 51 45 44 46 46 45 42 39 36 46 50 48 47 46 43 25 12 14 13 13 15
36 39 39 40 44 73 82 97 98 100 98 97 98 98 100 99 71 53 47 49 51 48 46 42 40 44 48 40 32 36 27 20 19 26 28 26 26 25
39 38 43 43 46 51 94 99 100 99 100 98 100 93 100 89 64 52 51 55 54 50 46 43 46 45 34 18 16 16 17 28 37 37 36 34 30 29
46 41 48 55 55 68 90 88 89 96 100 97 97 100 93 78 61 56 58 60 56 50 47 45 43 33 22 23 32 34 33 34 35 34 33 37 25 28
53 53 56 78 88 82 82 92 99 100 99 100 91 85 84 70 62 64 66 63 58 52 50 46 33 25 29 36 39 39 37 39 38 29 29 31 22 20
55 56 78 100 100 100 99 100 100 98 92 91 94 91 80 68 70 68 70 66 59 54 50 37 32 33 38 43 44 52 55 51 40 56 63 66 66 57
56 71 93 100 99 99 100 100 100 100 100 96 96 91 77 76 72 71 72 70 64 60 46 43 43 49 53 55 54 58 58 51 47 57 60 67 66 62
24 85 100 99 98 95 100 99 97 100 100 100 100 93 83 79 76 75 78 76 70 63 45 45 46 48 52 54 48 52 55 49 53 54 56 55 55 59
29 69 97 90 96 94 96 99 94 100 97 99 98 94 89 84 82 79 82 81 77 69 39 43 47 48 51 51 47 49 52 52 49 50 53 59 69 79
27 38 93 95 74 99 97 100 98 98 99 99 98 96 96 95 95 88 88 89 87 76 38 43 49 55 56 51 55 50 47 56 62 65 78 84 85 83
20 27 76 95 95 85 94 96 97 99 98 99 98 98 98 98 96 89 91 93 93 87 47 33 54 60 53 45 45 45 52 61 64 70 87 88 85 82
12 22 39 65 94 96 99 97 97 96 97 98 98 98 97 98 98 96 98 97 97 96 73 33 45 52 42 42 42 49 56 61 67 71 90 88 82 78
14 12 16 31 69 87 97 99 90 96 96 96 96 98 100 99 98 98 98 98 96 92 88 69 44 43 46 42 46 52 56 76 77 82 93 89 82 79
19 15 12 16 60 86 87 97 94 95 97 97 97 97 96 97 96 96 98 97 98 96 96 89 56 53 45 45 47 53 81 89 86 90 94 89 84 82
32 22 14 12 23 94 86 96 95 95 97 96 95 96 96 99 100 99 99 98 98 94 95 82 46 50 51 66 77 89 96 91 85 91 96 90 86 84

GFSNE_700_rhum_099.txt.gz
RH
99 100 98 98 100 100 96 99 100 100 88 91 86 100 96 100 100 99 80 80 81 72 57 36 29 26 26 25 26 29 30 28 27 30 30 33 31 31
100 100 100 100 99 98 100 99 96 97 98 100 96 98 100 100 100 98 89 79 69 58 44 31 27 27 27 27 30 31 30 30 31 30 31 32 34 36
100 100 99 99 99 99 98 98 100 100 99 100 100 100 100 99 100 98 86 77 65 50 37 32 30 30 29 31 30 28 27 30 31 32 32 35 40 39
100 100 100 100 99 99 100 99 99 99 100 100 100 99 99 100 99 98 89 80 68 46 35 33 31 31 32 31 30 26 28 29 32 35 36 41 42 37
98 98 99 99 100 100 100 100 99 96 87 89 93 85 98 100 100 99 90 78 70 46 35 34 33 33 33 32 30 28 28 30 36 40 42 44 38 33
85 92 90 91 91 90 94 99 100 100 100 99 100 99 97 99 100 97 86 81 72 48 37 36 34 35 34 32 30 29 30 31 37 42 43 39 34 44
42 44 51 61 74 79 83 91 100 99 100 100 100 100 100 89 80 93 88 78 67 46 38 36 38 38 35 34 32 30 34 37 40 44 42 33 34 34
40 38 38 40 44 54 62 72 79 86 94 100 100 99 100 94 100 100 98 88 72 47 39 40 41 40 39 36 32 33 39 44 46 44 37 28 24 12
43 41 40 39 38 42 53 61 72 82 85 90 99 100 100 100 100 99 100 91 72 49 43 43 43 44 40 36 34 38 44 45 45 42 35 12 10 9
42 44 43 39 41 41 39 46 57 92 84 100 99 100 100 99 99 99 99 85 64 48 46 46 46 44 39 36 39 42 42 37 42 38 15 17 21 21
35 42 43 44 40 42 46 43 54 69 99 100 96 99 99 97 93 99 89 93 62 50 51 49 47 45 40 41 43 38 27 19 18 20 30 36 36 30
38 40 44 49 47 42 44 54 61 91 99 99 94 99 97 99 100 98 93 79 58 52 50 50 49 46 43 42 37 24 22 19 22 34 39 41 35 31
50 39 37 52 58 57 73 64 73 100 85 100 99 98 98 98 96 88 87 73 59 54 55 54 52 47 45 37 27 26 31 35 34 34 34 33 32 31
47 55 40 31 59 80 100 100 100 100 100 99 97 95 94 98 95 96 87 70 62 60 58 58 54 50 40 31 27 35 39 41 41 42 35 34 46 55
43 45 53 39 26 55 89 99 98 99 99 100 100 100 99 99 100 96 82 68 68 64 65 61 57 48 39 32 35 41 45 52 56 54 48 62 66 63
34 35 32 29 25 34 67 81 88 98 97 99 100 100 100 98 95 91 77 72 70 70 70 66 61 44 43 42 51 54 54 58 57 51 51 60 60 59
14 22 28 32 39 67 67 76 76 95 80 91 97 99 99 96 96 89 80 78 75 75 74 71 61 43 47 48 50 54 52 51 56 51 53 54 52 52
18 16 18 22 99 100 97 84 77 92 88 98 90 98 96 100 98 92 86 83 82 85 83 77 66 46 46 46 46 51 49 47 51 51 50 53 62 69
25 19 17 20 46 100 98 100 98 100 96 97 97 98 97 98 98 96 97 97 95 96 90 84 73 52 44 47 51 52 50 55 51 47 57 63 69 83
29 24 18 16 17 73 98 96 98 100 98 97 97 97 97 97 97 97 98 97 97 97 97 90 84 62 41 51 58 53 47 50 46 54 63 64 71 88
33 27 22 18 15 18 85 97 96 97 97 94 95 96 96 96 96 97 96 97 96 97 99 98 90 58 37 48 56 51 44 45 51 60 63 80 75 91
36 29 24 27 20 16 19 97 96 97 96 92 90 95 96 97 95 96 96 96 97 97 100 96 94 86 61 40 46 46 42 46 54 57 70 90 93 94
44 37 28 30 25 18 17 78 99 94 97 97 100 95 95 95 96 96 96 96 97 98 98 96 98 95 90 51 58 48 43 51 58 66 89 92 94 96

GFSNE_700_rhum_102.txt.gz
RH
90 66 63 69 83 89 96 99 99 97 95 97 93 88 98 99 96 98 100 100 100 100 88 79 80 61 38 27 26 27 25 24 26 28 29 26 27 27
99 92 90 98 100 98 99 100 100 100 97 96 96 98 95 99 99 100 100 100 100 98 92 81 66 48 32 27 27 27 27 27 25 28 24 26 27 28
100 99 98 100 98 99 99 100 99 99 97 97 100 94 100 100 100 100 100 99 99 99 98 70 52 38 31 29 29 27 26 25 25 26 22 26 27 28
99 100 100 99 98 100 100 99 100 100 100 99 99 100 100 100 100 100 100 99 98 98 96 66 47 36 29 27 30 30 28 26 26 25 26 25 27 31
100 98 98 99 100 100 100 100 100 99 100 100 100 100 100 100 100 99 100 99 100 97 90 65 44 32 33 28 28 30 29 27 25 23 23 23 27 34
73 90 92 99 100 100 99 100 99 100 100 100 100 99 100 99 100 100 100 100 100 99 84 66 45 32 30 31 32 32 32 31 27 23 26 26 33 39
43 43 44 60 87 94 96 94 95 97 100 98 99 99 99 100 99 99 99 100 99 98 85 68 46 32 31 30 32 33 33 28 25 25 29 33 40 37
44 45 44 43 42 40 44 52 60 70 86 99 99 99 100 99 99 100 100 99 99 98 90 72 51 38 34 35 36 36 34 30 26 31 35 40 41 34
32 37 42 46 46 42 42 40 40 43 58 98 97 100 95 87 97 97 99 99 99 97 85 75 52 40 39 40 40 38 33 30 32 36 38 41 39 24
14 22 31 36 43 46 45 42 42 44 46 68 98 88 90 99 100 99 99 99 100 99 92 72 51 44 43 45 43 39 33 32 37 38 36 40 28 14
12 21 27 31 35 43 48 47 43 41 46 46 56 85 92 83 100 100 96 99 100 98 99 80 53 46 46 47 44 40 36 38 38 31 28 27 19 25
6 12 25 33 36 38 40 53 51 45 43 52 58 62 68 99 86 99 100 98 99 98 92 78 54 48 50 48 46 41 39 39 29 24 18 23 33 38
5 4 5 15 36 48 42 40 51 63 66 68 90 94 100 99 88 99 98 99 99 96 95 64 48 49 50 50 46 41 38 29 25 24 24 33 37 40
7 6 5 9 21 36 50 45 40 58 100 100 100 100 100 100 97 100 96 98 99 89 83 64 56 56 56 54 48 42 35 27 31 34 35 35 35 33
11 9 7 7 31 45 51 50 37 61 86 98 100 97 100 88 99 99 100 91 86 84 78 67 61 63 61 57 49 40 30 34 38 41 42 44 40 42
22 16 12 10 15 41 33 28 68 42 74 82 94 98 98 98 99 91 82 90 99 98 83 69 67 66 64 60 45 36 32 37 42 48 55 53 53 62
34 27 22 17 13 26 32 38 100 90 72 100 100 92 98 99 98 98 98 99 95 92 80 73 73 72 68 60 41 38 40 49 52 55 58 53 54 58
43 34 29 27 19 16 26 46 96 99 100 100 100 91 98 97 99 96 96 97 98 94 82 79 78 76 71 58 43 45 50 55 55 53 58 52 53 54
49 43 38 29 26 20 20 37 96 97 97 98 98 97 98 97 95 99 95 99 98 96 95 88 83 81 76 61 45 49 49 51 54 48 51 53 52 54
72 60 48 38 29 23 19 21 82 95 96 96 96 96 97 100 96 97 99 100 97 97 96 95 87 86 85 52 39 44 45 46 49 46 48 51 50 60
89 71 54 42 32 26 20 18 28 97 95 97 97 99 95 94 96 99 96 97 98 97 96 96 98 96 94 74 46 44 47 50 52 48 49 47 52 61
91 72 58 45 34 27 22 20 22 64 91 96 96 96 96 97 97 96 96 96 96 97 98 97 95 94 93 87 45 43 48 52 51 46 47 49 57 57
79 68 59 48 36 31 28 27 22 35 81 96 95 96 97 100 94 100 97 96 96 96 96 97 97 96 97 97 76 41 46 49 44 45 51 54 56 60

GFSNE_700_rhum_105.txt.gz
RH
98 100 99 100 99 98 100 100 96 98 84 86 100 100 100 99 100 100 100 98 100 98 99 100 100 100 90 78 68 40 25 23 22 22 21 18 19 23
100 97 98 100 99 99 99 98 98 86 95 98 98 100 100 100 99 100 99 98 100 100 98 100 100 100 94 79 54 34 27 24 24 23 20 20 20 24
99 100 100 100 98 100 99 99 95 98 98 98 97 97 100 100 100 99 100 97 98 100 100 100 100 98 92 60 41 30 26 26 25 25 21 21 18 24
100 99 98 99 100 100 99 100 99 99 100 98 97 98 99 98 98 100 99 100 100 100 100 100 100 98 84 61 37 30 30 28 27 26 25 21 20 23
97 99 99 100 100 100 100 100 99 100 99 100 100 100 99 98 99 99 100 100 100 100 100 100 99 93 60 45 35 32 28 27 26 29 25 24 22 21
45 44 50 74 94 99 99 99 100 100 99 100 100 100 100 98 100 100 100 100 100 99 100 99 98 82 70 44 34 32 28 31 30 27 26 24 24 23
45 46 44 44 43 43 53 82 98 99 100 99 99 100 100 99 98 99 100 100 100 100 100 99 98 92 72 48 36 34 34 34 31 29 27 24 26 28
14 24 37 45 47 46 44 45 46 52 68 86 98 93 100 99 100 100 100 100 99 100 99 100 99 93 81 52 37 37 36 37 34 31 29 25 30 33
4 6 9 18 31 40 46 47 45 47 50 52 76 67 89 98 99 99 97 99 99 98 99 99 99 93 83 57 39 37 38 40 37 32 30 31 37 39
3 3 3 4 8 15 26 36 46 47 47 51 80 60 89 99 92 99 99 99 99 100 100 99 98 98 88 66 43 42 42 42 39 32 30 35 38 40
4 5 5 4 4 5 9 18 27 38 49 49 48 53 91 88 100 79 87 90 98 99 99 99 99 98 94 62 44 42 45 43 39 34 39 34 34 36
4 3 4 6 8 7 4 5 14 28 38 46 51 50 55 55 98 99 100 73 98 100 98 99 99 99 92 55 47 44 46 45 41 39 36 29 25 22
7 6 5 9 12 11 8 6 4 6 20 38 46 56 76 85 82 91 96 98 99 100 100 98 99 98 91 83 61 45 48 47 42 38 30 22 19 26
11 10 11 12 16 14 9 6 6 13 15 26 37 45 99 98 100 94 93 98 99 99 100 99 98 84 75 66 51 49 51 49 41 34 26 24 23 32
35 31 28 23 19 13 9 7 18 35 42 50 47 50 51 98 98 99 98 98 98 99 98 99 99 97 75 64 56 57 57 50 41 30 28 33 34 35
55 43 33 30 26 18 15 10 13 34 39 78 67 100 57 68 98 98 98 82 98 80 74 91 88 83 75 64 62 62 60 48 37 31 34 38 41 42
77 56 40 40 36 32 29 18 13 24 51 44 98 100 99 100 89 97 97 97 98 99 98 99 96 84 77 67 68 67 60 45 33 35 39 44 48 51
80 68 56 46 40 40 33 27 22 26 64 58 94 94 97 98 100 95 98 98 97 100 98 98 99 97 84 72 74 68 58 40 34 37 45 52 54 54
85 84 83 72 60 49 39 30 24 32 85 98 96 96 95 96 98 100 99 95 97 97 97 98 99 98 85 77 73 70 51 40 38 47 53 54 52 54
89 91 88 89 76 58 46 36 28 29 66 98 94 97 96 96 96 100 96 95 99 97 98 97 95 97 90 85 78 62 44 42 46 54 54 51 52 54
85 87 87 87 80 63 50 40 33 27 48 80 96 96 96 96 93 96 97 95 99 96 97 97 97 97 97 93 87 66 45 47 46 48 50 46 42 48
87 85 86 84 76 63 54 47 36 31 33 94 95 96 96 96 96 95 96 100 96 100 100 98 97 98 94 96 90 82 55 44 44 43 46 47 42 46
85 81 75 73 70 60 54 49 43 35 34 68 94 84 95 96 98 96 96 94 94 100 98 95 95 96 98 96 97 96 84 46 42 43 45 40 43 48

GFSNE_700_rhum_108.txt.gz
RH
100 98 100 100 99 99 98 100 100 100 100 96 64 63 61 72 86 95 94 100 100 100 98 98 100 100 100 98 100 99 98 71 43 26 23 21 20 18
99 100 99 98 99 100 100 99 100 100 99 100 98 89 81 80 84 95 98 100 99 98 98 98 99 100 100 99 100 99 90 68 39 26 24 22 20 18
100 99 99 100 100 100 100 100 99 100 100 97 100 99 100 100 100 98 100 100 99 99 99 98 100 100 100 100 99 100 96 58 32 27 24 22 21 20
99 99 99 99 99 100 100 98 100 98 100 100 99 100 100 100 93 97 99 98 100 100 100 99 100 100 100 100 100 100 89 47 32 27 26 24 24 21
71 90 97 99 100 100 100 100 100 100 100 99 98 99 99 100 100 99 100 100 99 99 100 100 100 100 100 100 100 98 68 46 32 28 26 28 25 23
42 44 43 44 46 49 77 100 99 100 100 99 99 100 99 98 100 99 98 99 100 100 99 100 100 100 100 100 100 87 55 38 33 31 28 28 26 26
13 19 29 39 43 45 47 46 55 80 96 92 98 100 100 100 99 100 100 99 100 100 100 99 99 99 100 99 90 63 50 38 33 32 30 31 30 28
3 3 6 9 16 28 41 46 49 49 49 61 76 94 100 100 98 99 100 98 97 97 98 99 100 100 99 99 83 71 51 38 34 36 35 34 33 26
2 2 3 3 3 5 10 20 32 43 50 52 51 64 88 69 99 100 97 99 99 100 99 99 99 99 100 99 96 84 60 42 38 37 37 38 33 27
3 3 3 3 3 3 3 3 6 16 30 42 52 54 62 86 82 96 100 99 99 99 99 98 100 96 98 100 98 81 68 45 39 39 41 39 33 27
4 5 5 5 5 5 4 3 4 3 5 16 32 43 54 58 84 74 96 100 98 99 92 99 99 100 100 99 99 93 79 50 40 41 42 42 35 32
11 11 10 10 10 8 7 6 5 5 5 5 5 22 36 48 60 76 100 99 100 99 100 100 98 98 99 99 99 99 87 52 40 43 46 43 36 36
13 13 13 12 11 11 10 9 8 8 8 8 6 5 8 29 41 60 88 100 99 98 86 85 89 99 97 97 99 99 97 67 44 46 47 42 37 34
22 21 20 19 17 15 12 12 12 12 10 11 10 8 5 12 28 38 67 86 98 88 99 97 98 100 99 98 99 99 97 58 50 48 48 44 38 29
28 31 35 32 32 29 26 22 20 19 16 13 10 9 7 8 36 36 57 81 93 98 87 92 98 100 99 99 99 99 98 93 66 55 51 43 34 24
44 47 49 45 50 50 39 29 24 20 19 14 9 10 9 15 39 85 100 81 87 92 98 98 98 97 100 99 93 95 90 75 61 56 52 41 28 25
53 58 62 61 57 55 45 34 32 29 25 24 21 22 28 40 57 97 100 100 98 98 99 96 99 99 98 99 96 95 80 71 64 59 49 38 28 32
70 70 83 71 72 73 66 47 42 41 36 33 30 56 100 59 99 94 95 98 99 88 97 98 97 98 100 99 98 98 80 70 66 60 37 30 31 36
77 77 76 72 71 73 79 74 56 48 41 35 41 69 95 67 89 96 96 97 98 100 94 96 98 99 98 98 95 97 79 76 70 55 36 33 36 39
82 75 70 71 71 72 74 77 64 55 47 40 88 82 98 89 85 97 96 97 97 99 99 97 97 95 98 97 98 97 88 81 64 42 34 34 38 42
86 84 79 76 76 77 76 74 64 56 50 44 87 99 98 99 94 98 89 93 95 97 96 98 97 97 97 97 96 96 96 82 53 33 34 37 43 48
88 88 83 80 79 76 71 67 61 56 55 46 64 99 88 97 96 99 96 96 93 97 99 96 98 97 96 95 96 96 97 76 41 36 36 37 46 52
84 82 79 77 75 71 66 62 56 53 58 49 53 100 89 90 93 95 96 100 92 96 96 96 96 96 96 96 96 96 94 71 55 49 40 48 48 45

GFSNE_700_rhum_111.txt.gz
RH
90 93 92 99 87 94 98 100 100 99 99 96 100 99 99 100 83 70 64 66 76 91 88 94 98 99 99 99 98 98 98 100 100 90 94 56 31 20
98 99 90 91 100 99 99 98 99 100 100 98 99 100 100 100 100 74 73 76 76 82 81 96 99 99 100 98 99 98 99 99 100 97 89 55 32 20
100 100 100 100 100 99 100 98 100 100 99 100 100 100 100 99 100 97 88 82 77 83 76 95 100 100 99 98 98 99 100 100 100 98 93 56 30 21
100 100 99 99 100 100 99 99 100 100 100 100 99 98 99 100 100 100 100 99 97 95 100 100 100 100 99 99 99 99 100 100 100 99 97 54 28 24
56 71 68 64 86 97 99 100 99 100 100 100 100 100 100 99 100 100 100 100 100 100 99 99 99 99 98 100 100 100 100 100 100 99 90 45 36 24
17 21 26 33 40 45 47 52 84 93 99 100 99 100 100 100 100 99 100 99 100 97 98 98 99 100 99 100 100 100 100 100 100 100 70 47 31 26
3 3 4 5 8 10 16 27 41 46 48 66 99 99 100 100 100 100 99 99 99 100 98 99 100 99 99 99 100 100 100 100 100 96 60 41 30 28
2 2 2 2 3 3 3 4 7 13 29 47 49 51 69 69 83 100 99 99 100 98 97 96 98 100 100 99 99 100 100 100 100 86 54 39 33 30
3 3 3 3 3 2 2 3 3 3 4 8 17 37 49 52 57 73 95 98 99 99 100 98 100 98 98 100 100 100 100 99 92 67 54 40 34 30
6 6 6 7 7 6 5 4 3 3 3 3 3 4 12 29 50 53 50 74 88 100 100 98 100 100 98 98 100 99 100 99 84 73 55 40 34 32
9 8 8 7 8 10 9 9 9 8 7 4 3 4 4 5 15 36 55 58 95 83 100 100 100 100 99 99 99 100 100 99 99 96 71 43 35 33
9 9 9 8 7 7 7 7 7 7 8 8 8 7 4 5 5 10 29 51 62 71 65 99 100 100 100 99 99 99 100 99 100 95 74 46 35 36
11 11 13 14 15 14 13 12 11 11 10 8 8 9 9 8 6 6 8 30 46 58 58 80 94 99 99 99 100 99 99 99 99 99 83 52 38 37
21 22 22 23 23 23 22 21 19 17 16 15 13 11 10 10 9 8 7 10 33 47 66 98 100 100 100 99 99 99 98 99 99 99 97 70 46 44
32 33 35 34 33 29 27 26 24 22 20 18 17 15 14 12 12 12 9 8 10 40 75 85 84 100 99 98 98 99 98 97 98 99 99 91 60 50
46 49 46 49 51 51 44 46 45 44 41 36 30 24 20 17 14 13 12 9 11 20 44 100 64 89 99 97 99 100 99 98 99 99 99 98 64 52
57 56 59 64 63 62 58 59 59 57 53 41 30 26 24 22 15 13 12 11 22 31 68 99 99 100 99 97 88 98 95 99 99 99 98 96 65 56
70 68 70 73 72 65 62 62 63 63 68 61 47 42 34 29 25 31 91 48 62 52 84 93 97 100 100 98 100 98 95 99 98 98 98 97 88 57
75 76 76 82 80 72 68 69 64 62 71 70 60 50 41 34 42 43 55 70 93 95 96 83 98 93 100 98 99 98 99 100 99 99 98 95 79 48
71 75 77 80 82 83 81 76 72 70 72 70 60 50 41 60 81 97 100 100 80 98 89 95 95 96 97 94 98 94 98 100 98 100 96 91 63 32
80 84 91 88 85 84 81 76 70 66 67 64 54 50 45 100 92 97 98 100 88 94 96 98 100 96 95 97 97 98 98 98 97 98 94 74 51 38
77 78 80 80 77 76 73 68 63 61 63 60 52 50 44 98 100 97 97 97 91 96 96 98 94 97 97 97 96 96 96 97 97 98 94 59 42 36
81 80 78 77 72 69 65 61 60 61 61 56 53 52 46 83 98 95 99 95 95 98 96 96 96 96 96 95 95 94 96 97 97 96 95 74 41 31

GFSNE_700_rhum_114.txt.gz
RH
80 95 88 90 92 95 98 92 100 100 97 90 98 87 90 89 100 98 100 100 98 83 79 69 70 84 92 97 98 90 98 100 100 100 100 98 94 89
84 99 100 94 89 80 89 92 100 100 98 100 94 94 93 100 99 99 99 100 100 98 98 78 71 71 86 87 87 99 100 99 99 99 98 99 98 85
98 100 94 100 98 100 100 100 100 100 99 98 98 98 99 98 98 100 98 99 100 100 98 94 94 85 82 81 90 100 100 99 98 100 100 99 98 87
100 100 100 100 100 100 100 100 100 100 100 98 98 100 100 100 99 100 99 99 100 99 100 98 98 95 89 80 91 100 100 97 98 100 100 97 99 93
46 73 92 97 97 95 82 94 85 96 99 99 99 100 100 100 100 100 100 100 98 100 100 100 98 100 99 96 98 98 99 91 100 98 100 99 100 99
4 4 5 7 10 15 17 23 33 42 48 54 71 98 100 100 99 100 100 100 99 99 100 99 100 98 100 99 100 99 99 100 100 100 100 100 97 99
3 3 3 3 3 3 3 3 3 4 8 15 30 46 53 96 99 99 100 100 99 99 98 100 100 100 100 100 100 100 100 100 100 100 100 99 99 100
3 3 3 3 3 3 3 3 2 2 2 3 3 6 19 43 50 74 99 99 99 100 99 99 99 100 100 98 100 100 100 100 100 100 100 99 100 100
4 4 5 6 6 6 7 7 5 4 3 3 2 2 3 3 11 34 47 53 66 62 98 98 99 100 99 96 97 100 100 100 100 100 100 99 99 98
10 11 11 10 10 10 9 9 9 9 9 7 5 4 3 3 3 3 5 21 41 48 67 94 100 100 99 99 100 100 100 96 96 99 100 100 100 88
9 8 8 7 6 6 6 6 6 7 7 8 8 8 9 7 5 4 3 3 4 13 36 49 56 98 99 100 98 100 98 100 100 100 100 100 100 72
8 8 10 11 12 9 8 9 8 7 7 8 11 11 9 8 9 9 8 4 4 4 10 21 49 62 85 100 100 100 99 100 100 100 100 100 97 75
15 14 14 13 13 14 16 18 20 22 20 16 13 11 12 12 11 10 9 9 8 5 5 10 21 46 78 91 100 99 100 100 100 100 100 100 100 95
30 29 27 24 22 24 29 31 31 30 29 28 24 21 18 16 16 15 13 11 10 9 8 7 10 22 47 62 95 98 99 99 99 99 100 100 100 100
43 44 40 35 30 35 42 46 44 40 39 34 31 26 24 22 19 18 17 15 12 11 10 9 8 13 22 47 75 97 98 98 99 99 99 99 100 99
47 51 47 41 48 57 53 49 50 50 48 41 36 33 33 30 28 25 20 17 15 13 12 11 10 10 24 73 62 76 100 98 99 98 99 99 99 99
45 51 46 45 52 58 59 61 60 55 49 46 46 42 38 38 29 23 23 20 16 14 13 12 11 11 31 100 98 74 100 100 99 100 98 98 98 98
46 46 45 51 59 64 64 65 70 69 62 54 49 50 54 52 36 29 28 25 18 13 39 15 11 15 25 93 96 94 98 99 98 99 99 98 98 100
47 47 50 55 62 70 73 73 72 73 70 62 59 61 66 61 49 40 35 37 80 47 77 68 84 46 51 67 80 69 65 80 98 100 95 98 98 99
55 61 68 73 77 78 77 76 74 70 64 62 62 64 65 58 48 43 53 82 90 94 70 99 94 99 80 53 86 97 90 98 98 97 97 97 97 98
58 64 74 76 77 77 76 72 69 65 64 63 60 62 61 54 50 44 89 100 97 96 96 97 91 98 99 90 95 64 80 98 97 97 98 99 98 98
64 70 79 82 81 79 74 68 65 65 65 63 61 62 61 60 58 50 94 99 98 97 97 96 97 100 94 95 85 91 99 98 97 97 98 99 97 93
69 76 86 88 85 80 75 70 65 62 62 62 62 60 60 65 56 48 83 96 94 98 99 96 96 96 96 99 100 89 96 96 95 95 95 96 97 98

GFSNE_700_rhum_117.txt.gz
RH
56 80 97 96 93 90 98 99 100 96 96 97 77 81 92 92 90 98 98 93 93 96 100 99 96 95 93 74 74 88 94 89 89 87 95 94 98 99
72 93 86 100 98 100 97 96 99 100 85 84 84 98 94 99 97 95 96 92 97 100 99 100 100 98 95 96 92 92 96 99 95 86 86 98 99 99
97 91 99 100 92 100 100 95 98 99 98 97 100 100 99 89 97 98 91 97 98 99 99 100 100 100 99 98 98 99 97 98 94 88 99 100 100 98
94 87 96 99 99 100 99 92 100 98 98 99 100 99 99 100 94 99 100 100 100 100 99 99 100 98 100 99 99 99 100 99 100 86 99 100 100 100
39 66 86 50 33 45 82 97 99 99 100 98 98 100 99 99 100 99 99 100 98 97 100 99 99 98 98 100 99 99 99 99 95 98 99 100 99 100
4 5 7 20 4 3 3 4 5 7 29 52 26 63 42 49 69 94 100 100 100 100 100 100 100 100 99 100 100 100 99 99 100 100 99 100 98 100
3 3 3 3 3 3 3 3 3 3 3 3 3 3 5 8 16 24 43 97 99 100 100 100 100 99 99 99 99 99 99 99 100 99 100 100 100 100
4 4 4 4 4 4 4 5 4 4 4 3 3 2 2 2 3 3 7 27 68 98 100 100 99 100 100 99 100 100 100 99 100 99 100 100 100 100
5 6 8 9 9 9 9 10 10 10 9 7 6 5 4 4 3 3 3 3 7 30 51 87 99 100 100 99 100 99 99 98 99 100 100 100 100 100
11 11 10 10 9 8 8 7 7 7 7 7 7 6 6 6 7 6 3 2 2 3 5 22 48 68 72 97 99 99 100 100 99 100 100 100 100 100
9 8 8 8 10 10 9 8 7 8 8 8 8 6 6 6 5 5 6 6 4 3 3 3 3 16 36 46 96 95 99 92 99 100 100 100 99 99
17 22 25 25 22 20 20 18 14 12 10 9 11 14 16 15 11 8 6 5 5 5 7 5 3 3 4 18 52 97 91 100 98 99 100 99 100 100
21 19 18 20 22 25 29 28 25 23 18 16 14 17 17 16 16 15 13 11 8 6 5 6 7 5 3 3 11 46 88 100 100 99 99 100 100 100
34 29 21 19 23 34 40 40 38 40 44 46 41 35 30 26 24 22 20 18 16 11 9 9 6 7 7 4 3 8 48 94 99 100 100 100 100 100
46 36 20 19 26 37 45 43 40 46 51 50 51 51 44 37 31 28 24 21 19 18 17 14 12 10 8 8 6 4 12 53 95 99 100 99 98 100
46 25 23 28 35 38 36 37 43 51 54 54 54 50 45 40 35 33 28 24 22 20 21 18 15 14 12 9 9 7 5 23 78 98 100 99 99 98
36 24 29 34 33 36 38 42 44 49 54 60 63 59 52 45 38 36 36 38 32 24 19 18 17 15 14 12 10 9 8 6 32 82 100 98 99 99
35 30 30 33 36 44 49 51 56 60 61 61 63 62 56 49 44 42 49 48 34 28 26 20 18 14 13 13 12 10 10 9 10 67 94 98 98 98
34 36 39 44 48 57 60 61 57 60 61 59 59 59 60 53 51 51 57 55 45 39 32 28 82 60 78 44 14 15 12 10 15 68 98 97 99 98
39 42 46 54 64 72 72 70 64 62 62 62 62 60 58 56 53 57 57 48 43 39 58 69 96 90 68 67 69 26 20 15 22 92 100 96 97 98
45 52 62 69 77 80 76 70 67 63 59 58 59 59 58 55 56 57 50 47 44 74 63 73 97 100 89 99 96 86 38 61 39 40 98 99 96 98
52 55 64 70 73 71 65 61 58 57 55 55 55 55 57 60 58 52 54 53 56 94 85 88 96 100 99 98 91 93 83 72 77 82 84 84 93 95
48 50 55 58 60 59 57 53 52 53 54 52 52 54 55 53 56 62 61 54 60 97 92 90 96 97 95 95 96 96 100 80 99 84 97 76 100 81

GFSNE_700_rhum_120.txt.gz
RH
63 47 41 39 40 65 67 76 96 90 73 95 77 98 81 79 84 91 97 92 92 92 89 87 97 100 98 99 98 100 97 98 92 96 99 99 99 99
76 73 68 55 68 76 98 99 99 93 98 90 98 93 98 92 78 86 91 89 94 99 90 80 84 91 99 97 100 99 98 97 96 99 100 98 99 98
97 100 97 74 97 88 98 99 98 97 100 96 100 99 89 98 85 93 99 80 96 93 91 89 86 95 99 100 100 100 99 100 97 98 99 94 99 99
84 83 85 90 95 93 83 93 100 94 95 98 100 99 100 99 100 100 99 92 79 88 79 85 99 98 100 100 99 100 100 100 98 100 100 99 97 100
16 14 18 21 33 55 81 84 46 22 22 66 93 99 98 99 92 96 100 97 100 99 100 96 100 100 98 100 100 99 98 99 99 100 100 99 99 98
3 3 3 3 3 4 4 8 21 10 4 3 3 4 13 58 97 81 100 98 99 99 99 99 99 100 100 99 99 100 99 100 100 99 99 100 100 98
4 4 4 4 4 4 4 4 3 3 3 3 3 3 3 3 14 54 19 33 46 51 88 97 99 100 100 100 100 100 99 100 100 100 99 98 99 98
5 5 5 5 5 5 6 6 5 6 6 5 5 4 4 3 3 2 11 6 5 15 14 25 99 100 100 99 100 100 99 100 100 100 99 99 99 100
7 8 10 10 10 10 9 9 9 8 7 6 6 6 6 6 6 5 4 3 2 2 3 4 19 71 98 99 100 100 100 99 99 99 100 100 100 100
10 11 11 10 9 9 8 8 8 8 7 6 6 6 6 5 4 4 4 4 4 5 4 2 2 6 26 60 95 100 100 99 97 99 100 97 100 100
13 13 16 20 23 22 20 16 14 16 17 16 13 10 8 7 6 5 4 4 3 3 4 4 3 2 2 6 38 70 94 96 100 100 94 92 96 100
23 23 22 24 26 21 18 16 12 13 14 17 18 17 16 14 12 10 8 6 5 3 4 4 4 4 3 2 2 14 47 59 82 100 100 94 100 100
25 34 38 40 40 32 20 14 16 16 12 15 19 23 23 23 22 22 20 16 12 9 7 5 4 4 4 3 4 3 3 34 64 99 98 100 99 100
36 38 45 46 35 22 16 16 20 28 32 29 27 28 30 34 37 34 31 28 26 22 18 14 8 6 5 4 4 4 4 4 30 94 100 99 95 96
46 53 52 42 37 21 19 24 30 30 29 29 34 35 39 40 39 40 39 37 33 29 28 24 19 14 10 7 5 5 4 4 6 47 99 99 100 100
59 58 55 49 30 26 27 28 30 32 33 36 40 44 45 45 44 48 44 40 35 30 29 29 27 22 16 13 10 7 5 4 6 9 76 100 98 99
57 52 32 24 24 27 34 40 47 53 55 56 54 53 54 54 53 55 50 44 38 32 26 28 32 27 21 17 13 12 9 6 5 6 8 82 100 99
50 32 28 30 32 37 41 47 56 62 65 66 65 66 64 61 57 54 54 51 43 38 38 37 31 27 26 22 21 14 12 10 8 6 7 10 64 98
37 28 32 36 42 49 56 60 60 60 60 61 60 60 62 62 61 55 54 50 46 49 50 45 40 37 29 22 28 32 17 15 11 9 7 8 9 60
37 35 36 39 46 50 54 56 56 56 58 59 59 57 57 56 55 54 53 52 54 55 49 44 40 65 92 91 86 59 52 54 27 12 9 9 10 14
38 39 44 47 50 51 51 50 51 52 52 52 51 51 53 53 52 53 55 58 55 47 39 38 83 100 78 95 94 75 40 46 47 26 12 11 12 14
39 41 45 42 44 46 46 45 44 48 50 51 52 54 56 57 56 57 55 52 52 58 46 53 92 92 92 97 92 84 76 74 90 99 38 25 44 45
65 65 61 56 51 45 44 44 44 46 49 47 47 49 48 47 51 51 53 57 54 47 56 90 97 97 97 99 97 95 85 78 97 94 87 51 52 99

GFSNE_700_rhum_123.txt.gz
RH
84 84 94 97 98 99 93 72 54 53 57 66 76 73 87 100 85 84 76 87 96 99 92 82 87 90 92 92 92 89 89 92 98 100 98 98 98 100
98 89 98 98 96 84 62 50 48 56 98 87 82 90 90 97 100 90 99 89 99 94 99 98 94 97 100 98 97 90 89 94 95 99 100 98 100 100
87 97 100 98 100 100 100 82 87 93 87 91 90 88 87 98 96 97 99 88 84 86 87 95 100 97 98 93 96 99 97 94 90 88 98 99 99 100
47 75 67 53 59 65 75 99 94 98 90 86 83 99 98 87 79 100 98 99 99 93 92 99 98 94 88 92 95 96 92 98 100 98 92 98 98 100
4 4 4 4 4 5 8 9 19 34 51 75 77 64 31 19 31 73 84 83 95 97 98 100 92 82 70 88 93 98 99 96 98 94 100 100 100 98
4 4 4 4 4 4 4 4 3 3 3 3 5 22 24 9 6 8 10 25 66 100 97 96 93 98 94 99 100 100 100 100 95 94 96 96 100 99
6 6 6 6 5 5 5 5 5 4 4 4 4 4 3 3 3 3 6 7 4 42 81 98 98 97 96 100 98 95 100 100 99 100 98 99 98 100
9 8 8 9 9 9 9 9 9 8 7 7 8 6 6 7 6 5 4 4 3 4 38 32 13 44 66 95 97 99 100 100 100 99 100 99 98 99
10 9 9 10 10 10 9 9 8 8 7 6 6 6 6 6 6 5 5 5 4 5 4 6 14 8 38 70 27 98 99 99 100 100 100 100 100 100
18 17 15 13 13 14 15 15 14 14 16 15 13 11 10 9 8 7 6 4 4 4 4 4 4 4 3 4 9 40 64 99 99 100 100 100 100 99
19 18 20 23 23 22 24 26 26 23 17 13 12 11 11 11 12 10 10 8 6 5 5 4 4 3 4 4 4 3 4 34 97 99 99 99 98 99
19 26 28 29 39 41 43 41 36 27 18 15 13 12 12 12 13 13 12 11 10 7 8 5 5 4 4 3 4 4 3 3 10 56 98 100 100 99
26 28 34 35 36 44 46 40 37 32 22 13 11 11 14 19 18 17 18 16 13 12 13 9 6 6 5 4 5 5 4 4 3 17 50 94 100 99
29 31 36 45 51 51 48 44 31 20 16 16 16 17 19 18 18 20 23 28 30 24 22 22 17 12 8 6 4 4 4 5 5 4 15 49 85 99
41 51 56 57 52 37 20 19 19 20 21 22 24 26 28 28 28 28 28 32 32 33 37 35 30 26 19 13 8 6 5 5 4 5 4 22 60 96
56 59 57 41 21 19 21 24 26 28 30 32 35 38 40 39 38 41 38 35 32 33 44 43 40 35 28 23 18 11 8 6 5 6 6 7 53 97
57 55 32 21 22 25 28 31 34 38 42 49 53 52 49 47 45 46 46 48 46 39 37 43 42 37 33 28 22 19 14 10 8 6 7 6 21 95
58 44 24 22 25 26 28 29 30 34 38 41 46 48 49 50 48 46 48 48 48 46 42 42 39 36 38 37 31 25 20 13 11 9 7 6 6 47
60 37 28 28 30 32 32 33 32 35 35 37 39 43 45 47 48 47 48 48 46 44 41 41 44 49 43 36 30 44 34 22 14 12 9 8 6 7
60 39 32 33 34 35 36 36 38 41 42 44 45 47 47 46 44 46 48 49 47 46 47 52 55 56 48 40 30 25 71 66 46 19 11 9 8 6
67 57 60 61 56 48 43 41 42 45 47 48 49 50 53 52 51 53 53 55 54 52 46 43 50 51 45 60 59 38 56 76 82 63 26 14 11 9
72 75 80 84 85 86 82 61 48 50 54 58 58 57 58 54 50 49 51 49 50 51 47 49 54 52 52 89 94 79 70 80 85 80 44 30 32 23
76 77 82 85 86 85 86 85 76 62 56 55 57 61 62 60 60 56 54 53 50 46 48 46 48 65 92 100 99 91 87 85 90 86 62 37 43 66

GFSNE_700_rhum_126.txt.gz
RH
100 100 100 92 84 93 84 75 93 98 99 99 99 100 96 91 87 84 88 90 94 91 90 100 97 89 90 92 91 86 99 100 93 88 92 95 100 98
98 100 98 97 96 99 100 91 90 98 97 99 91 88 89 96 74 82 85 98 99 100 96 100 100 98 94 86 84 85 89 93 96 95 90 90 95 97
22 38 70 90 93 92 88 88 94 99 100 93 95 94 98 87 83 96 100 76 93 91 80 92 90 96 99 100 100 98 100 93 99 97 91 94 89 86
3 3 4 4 10 29 28 20 30 54 72 99 100 97 86 87 90 82 90 97 97 88 89 91 75 76 81 85 98 99 99 99 94 93 90 91 89 86
5 5 4 4 4 4 4 4 4 4 4 4 6 10 20 26 53 69 69 58 42 56 70 86 94 86 100 92 90 97 99 92 89 90 93 92 94 86
11 11 9 8 7 7 6 6 5 5 5 4 4 4 4 3 3 5 12 19 11 7 6 24 83 86 94 96 99 100 97 85 74 80 87 92 98 98
29 28 23 15 12 12 10 9 10 10 10 11 10 8 7 6 5 5 4 4 4 4 4 5 6 11 57 85 98 99 97 80 79 95 98 86 92 92
22 21 23 24 22 17 13 12 10 10 9 9 8 8 8 7 7 7 7 6 6 6 5 5 4 4 10 44 75 97 98 99 100 85 87 96 100 98
32 31 30 28 27 26 22 18 17 16 15 13 11 11 10 10 9 8 7 6 6 5 5 5 5 5 5 6 24 22 21 63 81 100 100 99 96 99
13 12 12 14 16 18 18 18 20 26 29 29 28 24 20 15 12 10 9 8 7 7 5 6 5 5 4 5 5 8 12 11 61 96 99 100 100 99
12 14 17 21 25 28 29 32 34 37 39 36 33 29 24 19 14 14 13 12 12 11 9 8 7 5 5 4 4 4 5 4 13 50 95 97 99 99
14 21 25 28 31 33 33 34 38 46 45 42 41 38 32 24 16 13 11 11 10 10 10 10 8 8 7 6 5 4 4 4 4 4 12 92 86 98
20 26 30 34 41 46 48 47 46 38 26 16 14 14 15 16 16 16 15 15 14 12 14 10 8 8 7 6 5 7 7 6 4 4 4 7 50 61
24 28 39 46 50 54 52 36 19 16 16 16 16 18 20 22 23 24 24 25 24 22 21 21 16 15 10 7 5 5 6 6 6 5 4 4 4 8
26 37 46 52 55 43 24 17 18 19 21 22 24 24 27 28 32 35 35 36 36 34 34 31 26 21 20 16 10 6 6 7 7 6 5 5 5 5
33 45 58 58 49 25 20 21 21 20 20 20 19 20 22 27 30 34 32 32 31 32 41 44 42 36 30 30 28 17 11 7 8 7 6 5 5 4
31 51 60 53 30 24 26 28 29 28 27 25 25 25 24 26 29 34 35 36 34 30 30 41 48 46 40 34 31 28 20 15 12 9 8 6 5 6
41 59 59 48 32 22 24 28 31 31 32 32 31 31 31 31 30 31 34 35 35 35 34 39 41 43 40 37 36 30 26 20 18 14 9 8 7 6
59 65 60 56 55 64 63 44 31 33 33 34 34 36 37 37 37 38 38 36 36 38 38 41 42 44 40 31 35 46 31 25 20 18 16 12 8 8
64 64 66 66 68 74 78 78 76 59 44 40 39 40 42 43 41 42 44 44 45 46 46 50 54 57 53 44 34 34 44 35 29 23 22 19 11 9
69 70 70 70 76 80 81 78 77 81 80 68 50 42 45 46 46 50 48 46 44 41 39 43 51 51 46 40 32 32 38 71 60 36 44 56 36 12
73 72 71 75 81 80 73 73 72 78 81 82 81 70 56 51 51 52 53 50 50 49 47 52 60 58 49 37 26 28 57 85 82 60 58 60 60 34
74 72 75 79 83 74 70 67 64 67 84 91 94 89 91 80 62 54 50 46 41 39 43 42 48 52 56 67 81 86 89 92 93 82 66 76 72 60

GFSNE_700_rhum_132.txt.gz
RH
5 3 17 87 100 100 100 100 100 97 93 82 77 79 81 87 98 90 95 100 100 100 100 100 100 100 100 100 99 99 98 100 100 100 100 97 97 98
7 4 4 3 4 9 29 59 86 98 100 93 92 90 90 87 85 95 90 91 97 99 98 99 100 99 100 100 90 86 92 89 99 100 100 100 94 96
10 10 9 7 6 4 4 4 4 8 29 63 78 82 81 80 85 85 88 95 98 96 97 92 96 99 100 99 99 89 84 90 100 99 100 99 94 98
18 22 22 21 21 18 14 10 7 6 5 4 4 4 9 24 46 50 53 80 88 89 89 87 93 94 94 98 97 87 86 77 90 94 96 96 96 92
29 29 30 32 33 34 34 32 30 24 18 15 11 8 7 6 5 4 4 4 4 16 47 74 85 89 90 78 68 85 87 88 91 78 66 87 98 94
32 32 31 30 29 31 33 33 32 31 31 30 26 20 16 13 13 12 10 8 7 5 4 4 4 4 5 47 70 70 76 71 82 73 72 80 82 90
33 29 27 28 27 23 22 21 22 27 32 32 31 31 30 27 23 19 17 13 11 12 11 10 7 5 4 4 7 38 58 55 55 51 55 74 77 81
29 28 29 23 15 14 13 13 14 14 12 13 14 15 16 17 19 20 20 20 19 16 14 11 10 10 9 7 6 4 4 5 14 15 12 53 71 80
30 29 15 13 12 9 9 10 13 16 17 19 21 23 24 26 26 23 24 24 24 22 19 17 12 9 8 8 8 8 7 6 5 5 7 15 30 51
29 16 12 11 9 8 11 16 21 25 26 26 28 34 37 35 31 28 24 22 23 24 26 21 20 18 14 10 9 7 7 7 7 6 5 5 12 12
23 13 11 10 9 15 18 21 26 31 32 36 38 32 16 11 11 10 9 8 8 7 8 7 8 12 18 17 15 13 11 9 7 6 6 6 5 4
20 13 12 10 16 21 22 29 29 37 44 37 17 12 11 11 12 13 13 12 12 11 12 12 11 10 6 8 13 14 13 12 12 10 9 7 6 6
19 13 12 12 21 24 29 30 37 42 32 20 14 14 14 14 15 15 15 15 15 15 16 16 12 13 13 8 7 10 12 13 12 10 10 9 8 6
18 13 11 14 23 27 31 41 43 37 31 23 19 16 17 18 17 17 17 18 18 18 19 20 16 16 14 11 11 12 14 12 11 10 10 9 8 8
16 13 12 14 24 29 39 48 45 39 35 41 34 21 18 19 20 21 22 23 23 23 23 23 22 21 19 16 13 14 14 14 17 15 10 8 8 7
15 14 12 17 28 34 51 50 48 40 43 40 40 39 24 21 21 22 23 25 26 28 29 28 27 24 21 20 19 17 21 18 17 18 18 13 9 8
15 14 14 26 35 53 57 53 48 45 45 38 34 32 33 36 36 30 27 27 27 28 31 33 33 32 29 26 22 23 21 22 21 17 18 19 15 11
16 13 17 34 47 62 61 58 53 51 44 38 35 31 32 37 40 48 53 43 36 36 34 36 36 36 36 34 32 30 29 27 26 22 20 24 19 18
16 13 27 40 59 67 63 60 58 57 48 39 35 38 50 70 75 80 78 64 52 43 38 39 37 33 29 28 36 34 35 41 41 36 27 26 26 18
15 16 36 51 68 68 64 61 62 59 48 46 50 60 72 83 84 86 87 88 87 69 45 43 40 36 26 23 20 25 31 28 28 27 30 30 31 21
15 20 39 62 72 71 68 68 67 60 58 64 75 86 94 91 89 91 91 94 90 81 54 50 49 42 32 28 28 29 36 44 39 27 24 29 31 27
15 26 44 68 75 74 72 71 68 66 73 84 94 96 97 95 92 93 94 92 92 92 90 86 64 47 40 36 35 42 61 53 72 64 31 27 30 31
15 30 49 74 78 77 77 77 74 77 86 93 96 97 96 95 96 97 96 98 98 94 94 95 90 76 90 92 91 83 85 96 94 96 86 74 76 70

GFSNE_700_rhum_135.txt.gz
RH
13 12 10 7 5 4 4 5 8 33 78 82 79 77 80 86 85 84 76 90 99 95 96 91 100 99 99 100 100 100 99 100 100 99 100 100 98 99
13 12 12 12 11 9 7 6 4 4 4 5 18 53 77 83 82 88 92 92 92 99 99 100 99 99 100 100 100 100 100 100 98 100 100 100 99 100
14 16 20 23 24 23 22 21 18 14 10 6 5 4 4 4 11 48 71 81 88 84 81 77 87 89 91 99 100 99 99 100 100 100 100 100 100 99
22 27 28 29 29 31 30 30 30 31 30 30 26 18 13 11 9 6 4 6 11 33 43 80 81 90 90 92 98 98 99 98 100 99 99 98 98 100
28 30 30 32 31 29 28 28 28 30 30 29 29 30 31 28 24 22 20 13 8 5 5 5 15 54 77 78 77 88 96 95 97 98 99 100 100 98
32 32 31 31 27 27 27 25 22 20 20 20 22 24 28 30 32 31 27 24 22 20 18 16 14 8 6 14 27 46 77 94 94 78 68 98 98 97
32 32 32 29 28 28 20 16 15 14 13 13 14 15 15 16 17 20 23 25 26 28 25 21 16 15 16 15 7 5 9 8 11 52 68 68 71 72
33 33 30 30 28 18 16 12 8 8 9 10 12 13 16 19 19 19 18 17 16 19 21 22 22 21 18 15 12 13 12 7 6 4 14 48 67 62
32 30 32 28 21 14 11 8 8 11 15 17 18 20 21 24 26 28 26 23 19 19 18 18 20 19 21 19 17 14 11 10 10 10 6 5 8 19
30 30 31 25 16 12 10 8 13 18 22 26 26 28 31 30 24 13 10 8 7 7 6 6 6 7 12 18 21 20 17 12 10 9 10 9 7 5
30 36 32 24 15 12 10 13 18 23 28 28 34 37 29 18 14 13 11 10 10 9 10 10 10 8 8 7 7 9 16 18 16 13 11 9 8 8
64 72 32 22 14 12 11 18 21 27 28 38 39 30 26 21 17 15 13 12 11 11 12 14 13 13 11 10 11 12 10 9 13 16 15 13 12 10
90 76 46 24 14 12 12 22 25 27 34 42 37 31 25 22 17 15 14 14 14 14 16 16 15 16 15 12 11 12 12 11 9 9 11 14 14 13
94 89 61 20 14 12 14 25 29 32 44 43 36 32 22 19 18 15 14 15 17 17 19 20 18 19 18 16 15 13 15 12 10 10 8 8 10 12
95 89 46 18 15 12 17 27 30 44 48 46 40 32 22 17 18 19 18 17 17 18 21 23 23 23 22 21 20 20 18 16 15 12 10 8 7 7
94 92 50 17 15 12 21 30 39 52 52 48 40 34 27 22 18 19 19 23 23 25 25 24 24 24 22 25 26 25 26 20 18 18 15 13 11 10
93 80 25 17 14 15 30 37 52 57 56 49 45 38 25 21 26 40 60 64 63 66 56 36 31 28 26 26 25 30 30 28 27 22 19 16 16 14
91 68 20 18 14 24 35 48 61 60 57 52 51 39 29 29 44 59 72 79 76 79 79 65 46 32 28 24 26 23 24 27 32 31 28 20 16 20
92 53 20 16 16 33 43 63 66 62 57 58 55 45 43 50 59 72 86 87 86 84 84 85 77 48 28 21 27 28 25 27 25 22 21 17 12 18
91 52 20 16 20 37 56 68 69 65 63 62 58 58 67 73 83 89 92 91 90 87 85 88 87 88 56 34 24 28 35 34 33 33 31 28 26 20
94 61 21 16 25 42 67 71 71 69 68 67 68 77 85 88 93 94 92 95 96 92 85 89 93 94 90 77 41 28 33 42 44 44 54 52 55 53
95 71 22 16 30 49 72 75 75 75 74 75 83 90 91 95 98 98 98 98 96 98 93 93 98 99 97 97 89 66 58 86 94 90 86 82 68 64
95 73 21 16 32 54 74 77 78 80 81 87 89 90 95 98 98 100 99 98 96 95 97 96 97 97 96 97 98 92 91 93 94 90 88 99 91 81

GFSNE_700_rhum_141.txt.gz
RH
24 24 24 20 16 15 18 20 21 22 22 23 20 20 21 21 16 10 5 4 12 53 71 75 70 84 99 99 100 95 94 69 79 84 94 99 100 100
29 30 28 19 15 19 23 26 26 27 27 26 26 23 23 23 25 25 25 20 14 7 5 33 71 82 90 89 95 100 96 93 86 74 97 100 98 96
38 38 32 19 17 25 29 29 30 30 28 26 25 23 22 22 22 24 24 25 26 27 24 17 8 10 39 70 76 75 88 94 99 80 99 90 100 100
44 44 37 18 21 33 34 31 30 30 27 27 25 20 18 19 19 20 20 22 25 26 25 25 26 25 17 8 7 13 46 72 84 92 93 99 98 96
50 50 46 19 24 39 34 31 31 29 29 27 20 18 16 14 12 11 12 13 14 17 20 23 24 22 23 26 25 17 9 8 20 57 73 83 87 92
62 61 57 23 27 39 32 32 30 30 28 22 16 14 10 9 7 7 9 11 12 12 12 14 14 17 20 21 21 24 27 26 21 14 11 43 72 75
69 69 66 33 31 36 32 30 30 30 29 22 15 11 9 10 11 12 13 15 20 20 18 16 15 12 10 9 10 14 19 21 24 27 27 21 16 38
77 74 73 40 33 35 33 30 38 56 35 21 13 9 13 18 20 20 19 22 21 18 14 13 12 10 9 7 7 8 8 9 10 15 20 25 27 21
85 78 79 44 33 34 30 34 64 65 33 19 12 12 16 23 23 22 27 25 22 20 17 13 10 10 10 11 13 13 12 10 7 6 6 10 18 24
95 88 86 47 33 34 32 54 76 61 33 20 19 16 18 23 25 26 29 26 20 11 8 8 8 9 9 8 8 7 6 7 10 10 8 6 5 9
96 93 92 52 32 32 40 66 81 80 46 33 16 17 22 29 32 35 33 20 9 10 11 14 14 16 16 15 14 14 13 12 9 6 7 8 7 6
96 94 95 62 45 36 48 75 85 91 63 58 19 18 27 31 41 38 30 12 10 10 12 14 15 19 23 22 21 21 20 18 17 16 12 7 8 8
96 95 95 79 47 48 66 82 95 89 66 53 15 22 31 39 45 41 23 9 9 14 18 25 30 33 35 31 33 37 37 31 23 22 18 16 12 8
96 95 97 94 81 65 88 96 96 92 77 26 13 27 32 46 48 41 20 13 15 19 27 36 36 40 42 41 38 38 43 40 38 31 28 18 16 16
96 96 96 96 87 74 97 96 95 89 50 14 18 32 40 51 51 38 24 16 14 18 33 39 37 36 47 48 42 43 33 40 43 26 15 12 12 13
96 96 98 96 96 97 96 96 95 69 19 15 28 40 51 55 52 36 26 19 15 24 39 44 42 48 55 60 54 51 50 36 20 16 14 12 10 13
94 95 96 96 96 97 96 95 89 38 15 22 36 51 60 56 50 40 32 20 18 29 49 58 62 70 72 70 60 60 56 51 31 20 19 17 16 14
92 95 96 95 96 96 96 95 62 18 17 33 48 64 62 57 52 48 35 28 35 49 59 74 80 81 80 76 72 75 67 64 62 42 25 21 22 23
94 96 95 96 98 96 96 94 37 17 23 40 63 67 64 59 54 49 47 51 62 71 78 80 81 84 79 74 78 79 85 79 78 71 63 39 26 27
96 95 95 97 98 97 98 89 26 17 30 50 71 71 70 64 59 61 67 75 77 79 81 83 87 91 86 86 74 73 91 88 84 77 74 71 62 41
96 95 96 98 97 97 96 85 27 19 35 60 74 74 74 68 74 80 82 82 81 82 79 81 86 87 84 85 78 74 81 91 96 93 85 80 77 71
96 95 95 87 93 96 98 93 34 20 42 68 78 79 78 79 86 86 87 85 87 86 87 88 92 96 95 99 94 89 85 88 92 93 89 89 83 75
96 96 93 84 94 95 97 94 39 23 49 77 82 83 83 88 91 90 91 91 90 86 88 87 92 96 92 94 95 91 90 90 92 88 85 100 95 86

GFSNE_700_rhum_144.txt.gz
RH
33 31 29 28 28 28 23 18 17 19 21 24 23 23 24 24 24 23 21 19 17 10 5 4 27 69 77 83 86 86 96 97 100 96 100 88 88 96
41 39 36 34 35 33 24 18 21 26 27 26 26 24 23 22 21 22 22 22 22 22 21 18 13 6 15 54 78 91 86 84 90 97 83 98 98 83
50 50 45 43 45 42 26 19 26 32 30 29 28 26 25 23 20 19 19 20 21 22 23 22 22 24 20 10 9 27 52 76 74 84 89 91 97 92
70 67 59 54 54 52 32 19 31 35 31 30 29 28 25 22 20 19 16 15 15 17 18 22 23 23 24 27 26 17 10 8 22 52 76 89 100 100
90 81 74 63 62 60 44 21 36 35 31 30 29 29 29 23 18 14 10 8 8 8 11 14 15 17 20 22 24 24 23 26 19 10 10 53 79 90
98 97 92 73 66 68 53 27 36 33 31 30 35 49 34 22 16 11 9 8 9 10 11 12 12 11 10 10 12 16 19 21 22 25 25 16 13 40
87 91 96 89 73 74 62 32 35 32 30 32 65 63 32 19 13 11 12 14 19 18 20 22 19 15 13 11 10 9 9 8 9 13 18 21 25 21
69 75 84 98 87 79 69 34 33 32 29 60 66 61 26 13 12 15 17 16 20 29 22 18 15 15 15 14 12 12 12 10 8 7 6 7 12 18
60 86 80 99 95 85 79 40 33 30 38 70 73 67 38 21 20 19 23 20 24 28 23 21 16 9 7 5 5 5 5 4 4 4 6 8 9 7
58 66 100 87 98 88 88 45 32 30 59 82 81 75 32 30 15 20 24 28 34 30 20 9 9 10 11 12 13 14 15 15 14 13 11 9 6 4
54 75 91 94 98 94 91 55 32 40 76 94 92 84 56 58 19 22 29 33 37 30 12 12 13 14 16 18 19 21 21 21 22 20 15 10 7 9
51 83 92 100 97 96 95 84 50 57 79 94 94 88 73 46 18 26 33 42 39 22 14 11 13 18 22 26 28 33 35 34 33 27 19 14 14 12
66 88 99 99 97 97 96 86 39 73 85 95 95 94 76 48 19 32 41 45 40 21 14 18 23 31 32 29 36 46 45 43 39 34 26 18 20 19
90 100 100 98 95 96 96 89 92 77 88 96 96 91 62 19 26 37 48 48 42 24 20 16 22 29 30 28 23 31 44 44 40 38 27 24 24 21
79 100 98 96 97 96 98 94 90 91 95 96 95 86 31 23 38 46 56 53 43 31 21 15 14 21 24 23 21 32 39 50 46 40 32 27 18 11
96 98 97 97 95 96 97 96 93 93 96 95 92 38 21 37 49 59 61 56 46 42 24 15 14 15 22 30 32 49 57 51 54 52 44 33 17 12
97 96 97 96 96 98 96 94 95 95 95 94 57 19 32 46 62 66 63 56 46 44 36 31 28 27 31 47 58 62 62 61 60 58 55 47 37 20
95 94 96 97 97 97 89 93 95 95 95 88 26 21 42 62 71 69 64 55 47 39 41 54 58 59 62 66 64 64 64 68 70 65 60 57 54 50
93 96 96 96 97 88 86 92 96 96 92 67 18 30 52 74 74 73 67 57 49 54 70 72 70 68 63 62 67 64 64 75 73 68 67 65 63 62
96 96 96 97 96 87 90 94 96 96 90 32 19 36 65 77 77 76 70 67 73 79 79 82 82 79 74 72 65 68 75 74 77 72 68 69 68 68
96 96 96 96 96 92 92 96 97 97 92 35 21 42 74 80 82 81 79 84 83 81 79 83 83 79 77 75 70 73 77 82 86 91 83 74 73 70
96 96 96 97 98 94 91 91 95 97 94 55 23 48 78 83 86 86 89 89 89 86 85 86 88 88 86 82 81 82 82 81 85 87 87 84 85 75
96 96 96 97 97 95 84 87 96 98 95 52 24 55 81 86 87 90 93 91 89 88 91 88 87 87 85 88 86 83 82 85 86 83 80 88 94 96

GFSNE_700_rhum_147.txt.gz
RH
34 37 39 38 36 34 33 34 34 29 23 23 24 24 23 23 21 20 20 19 19 19 18 18 17 15 7 8 43 79 88 98 98 90 99 96 99 100
39 46 56 55 49 44 41 39 39 37 30 26 27 27 26 25 24 22 21 20 19 18 18 20 20 20 21 19 8 9 47 83 93 91 93 96 97 96
45 52 59 64 59 55 50 47 46 44 37 27 29 30 28 26 26 27 25 21 19 18 18 18 19 21 21 22 25 21 9 10 39 76 84 82 84 80
45 47 57 71 74 69 62 55 55 54 40 27 32 32 30 28 35 46 33 22 18 16 13 11 12 14 17 21 24 26 26 24 13 8 20 58 86 84
50 52 58 65 86 89 80 66 64 62 49 32 33 33 30 37 60 52 36 22 16 12 10 8 8 9 11 13 17 21 24 24 26 26 18 9 20 66
46 54 54 57 72 95 94 87 74 69 56 36 34 34 31 60 62 55 39 18 12 11 11 11 12 13 12 12 11 11 14 17 19 20 22 26 25 13
36 46 55 68 84 100 80 99 90 77 70 39 34 32 41 66 62 56 44 16 14 17 21 20 19 22 20 16 13 12 10 10 9 9 9 12 17 21
46 42 49 56 66 97 77 97 98 86 77 42 34 32 58 72 71 72 52 32 18 27 30 30 26 22 17 16 16 14 13 11 11 12 11 9 7 6
38 52 50 57 68 75 100 90 98 94 86 45 33 32 64 78 73 71 46 30 24 26 47 34 28 24 21 12 6 6 6 7 7 6 5 5 4 4
34 55 60 55 63 80 94 97 93 98 96 68 35 36 71 77 74 75 72 63 22 34 30 30 29 18 10 9 11 13 14 15 16 16 14 13 13 12
32 58 65 60 64 83 97 98 97 97 96 74 47 50 82 84 85 80 79 28 30 35 42 36 24 13 13 14 15 17 19 21 20 19 18 16 9 6
21 43 67 68 72 95 100 99 96 98 94 89 65 62 90 87 85 82 75 32 26 34 46 39 19 12 13 15 19 25 29 30 28 26 24 20 17 7
33 37 77 86 86 100 100 97 97 96 96 92 51 74 92 94 90 81 74 24 26 41 50 41 16 15 18 25 34 37 32 31 30 33 31 29 29 22
42 72 93 99 100 100 99 97 96 96 96 94 90 94 96 96 91 76 33 19 32 50 56 46 17 18 18 22 26 35 32 32 28 31 34 36 34 32
78 100 100 100 99 100 98 97 96 97 96 94 93 96 96 94 82 39 20 34 47 58 58 47 24 18 13 12 12 17 21 29 40 45 47 46 46 42
95 99 98 100 100 98 96 96 96 96 92 92 96 97 97 91 56 22 36 48 59 66 59 49 33 20 13 13 12 17 33 34 54 55 49 54 53 50
97 96 96 97 97 96 96 96 96 94 93 96 95 97 95 58 20 30 48 61 65 67 65 56 38 24 18 20 28 51 50 54 56 57 56 54 56 56
89 97 96 96 96 96 96 96 95 95 96 96 96 96 84 24 22 44 62 68 67 66 63 59 48 39 38 53 65 63 62 61 61 57 58 50 50 59
96 96 96 97 96 96 96 96 96 96 96 97 96 93 67 20 30 55 75 74 71 66 64 73 82 76 67 67 71 71 65 70 64 64 66 61 55 59
97 96 97 97 96 96 96 96 95 96 96 96 96 80 37 20 38 68 77 76 73 71 82 90 87 79 75 70 61 72 75 64 66 63 68 68 65 64
96 96 96 96 96 95 96 96 95 96 96 95 97 86 39 22 44 76 81 80 77 81 89 95 93 85 80 72 61 63 70 72 68 64 65 69 67 63
94 97 97 96 95 94 95 95 96 96 99 97 99 96 54 24 52 81 85 84 86 86 88 91 92 86 81 73 65 61 67 75 77 72 73 73 69 60
94 97 96 96 96 94 94 96 96 94 90 97 96 97 48 28 64 87 89 89 91 92 92 91 90 87 79 70 62 64 70 71 65 62 62 68 70 71